Time,TemperatureF,DewpointF,PressureIn,WindDirection,WindDirectionDegrees,WindSpeedMPH,WindSpeedGustMPH,Humidity,HourlyPrecipIn,Conditions,Clouds,dailyrainin,SoftwareType,DateUTC
2013-06-18 00:00:00,63.6,62.4,29.96,West,276,0.0,0.0,96,0.00,,,0.89,Wunderground v.1.15,2013-06-18 04:00:00,
2013-06-18 01:35:00,63.5,62.3,29.90,West,277,0.0,0.0,96,0.00,,,0.01,Wunderground v.1.15,2013-06-18 05:35:00,
2013-06-18 01:38:00,63.5,62.3,29.90,West,277,0.0,0.0,96,0.00,,,0.01,Wunderground v.1.15,2013-06-18 05:38:00,
2013-06-18 01:43:00,63.5,62.3,29.90,West,277,0.0,0.0,96,0.00,,,0.01,Wunderground v.1.15,2013-06-18 05:43:00,
2013-06-18 01:48:00,63.4,62.2,29.90,West,277,0.0,0.0,96,0.00,,,0.01,Wunderground v.1.15,2013-06-18 05:48:00,
2013-06-18 01:54:00,63.4,62.2,29.90,West,277,0.0,0.0,96,0.00,,,0.01,Wunderground v.1.15,2013-06-18 05:54:00,
2013-06-18 01:55:00,63.4,62.2,29.90,West,277,0.0,0.0,96,0.00,,,0.01,Wunderground v.1.15,2013-06-18 05:55:00,
2013-06-18 02:00:00,63.4,62.2,29.89,West,277,0.0,0.0,96,0.00,,,0.01,Wunderground v.1.15,2013-06-18 06:00:00,
2013-06-18 02:03:00,63.4,62.2,29.89,West,277,0.0,0.0,96,0.00,,,0.01,Wunderground v.1.15,2013-06-18 06:03:00,
2013-06-18 02:04:00,63.4,62.2,29.89,West,277,0.0,0.0,96,0.00,,,0.01,Wunderground v.1.15,2013-06-18 06:04:00,
2013-06-18 02:05:00,63.4,62.2,29.89,West,277,0.0,0.0,96,0.00,,,0.01,Wunderground v.1.15,2013-06-18 06:05:00,
2013-06-18 02:08:00,63.4,62.2,29.89,West,277,0.0,0.0,96,0.00,,,0.01,Wunderground v.1.15,2013-06-18 06:08:00,
2013-06-18 02:11:00,63.4,62.2,29.89,West,276,0.0,0.0,96,0.00,,,0.01,Wunderground v.1.15,2013-06-18 06:11:00,
2013-06-18 02:12:00,63.4,62.2,29.88,West,277,0.0,0.0,96,0.00,,,0.01,Wunderground v.1.15,2013-06-18 06:12:00,
2013-06-18 02:15:00,63.4,62.2,29.88,WSW,252,0.0,2.0,96,0.00,,,0.01,Wunderground v.1.15,2013-06-18 06:15:00,
2013-06-18 02:17:00,63.3,62.1,29.87,South,190,0.0,2.0,96,0.00,,,0.01,Wunderground v.1.15,2013-06-18 06:17:00,
2013-06-18 02:19:00,63.2,62.0,29.87,South,181,1.0,2.0,96,0.00,,,0.01,Wunderground v.1.15,2013-06-18 06:19:00,
2013-06-18 02:24:00,63.1,61.9,29.86,SSE,163,1.0,2.0,96,0.00,,,0.01,Wunderground v.1.15,2013-06-18 06:24:00,
2013-06-18 02:25:00,63.0,61.8,29.86,SE,129,1.0,2.0,96,0.00,,,0.01,Wunderground v.1.15,2013-06-18 06:25:00,
2013-06-18 02:28:00,63.0,61.8,29.87,SE,129,1.0,2.0,96,0.00,,,0.01,Wunderground v.1.15,2013-06-18 06:28:00,
2013-06-18 02:29:00,62.9,61.7,29.87,SE,129,1.0,2.0,96,0.00,,,0.01,Wunderground v.1.15,2013-06-18 06:29:00,
2013-06-18 02:32:00,63.0,61.8,29.88,SE,129,0.0,0.0,96,0.00,,,0.01,Wunderground v.1.15,2013-06-18 06:32:00,
2013-06-18 02:33:00,62.9,61.7,29.88,SE,129,0.0,0.0,96,0.00,,,0.01,Wunderground v.1.15,2013-06-18 06:33:00,
2013-06-18 02:36:00,62.9,61.7,29.88,SE,129,0.0,0.0,96,0.00,,,0.01,Wunderground v.1.15,2013-06-18 06:36:00,
2013-06-18 02:38:00,62.9,61.7,29.88,SE,129,0.0,0.0,96,0.00,,,0.01,Wunderground v.1.15,2013-06-18 06:38:00,
2013-06-18 02:40:00,62.9,61.7,29.88,SE,129,0.0,0.0,96,0.00,,,0.01,Wunderground v.1.15,2013-06-18 06:40:00,
2013-06-18 02:42:00,62.8,61.6,29.88,SE,129,0.0,0.0,96,0.00,,,0.01,Wunderground v.1.15,2013-06-18 06:42:00,
2013-06-18 02:45:00,62.7,61.5,29.88,SE,129,0.0,0.0,96,0.00,,,0.01,Wunderground v.1.15,2013-06-18 06:45:00,
2013-06-18 02:48:00,62.7,61.5,29.87,SE,129,0.0,0.0,96,0.00,,,0.01,Wunderground v.1.15,2013-06-18 06:48:00,
2013-06-18 02:51:00,62.8,61.6,29.87,SE,129,0.0,0.0,96,0.00,,,0.01,Wunderground v.1.15,2013-06-18 06:51:00,
2013-06-18 02:52:00,62.8,61.6,29.87,SE,129,0.0,0.0,96,0.00,,,0.01,Wunderground v.1.15,2013-06-18 06:52:00,
2013-06-18 02:53:00,62.8,61.6,29.87,SE,129,0.0,0.0,96,0.00,,,0.01,Wunderground v.1.15,2013-06-18 06:53:00,
2013-06-18 02:54:00,62.8,61.6,29.88,SE,129,0.0,0.0,96,0.00,,,0.01,Wunderground v.1.15,2013-06-18 06:54:00,
2013-06-18 02:58:00,62.9,61.7,29.88,SE,129,0.0,0.0,96,0.00,,,0.01,Wunderground v.1.15,2013-06-18 06:58:00,
2013-06-18 03:01:00,62.9,61.7,29.87,SE,129,0.0,0.0,96,0.00,,,0.01,Wunderground v.1.15,2013-06-18 07:01:00,
2013-06-18 03:05:00,63.0,61.8,29.87,SE,129,0.0,0.0,96,0.00,,,0.01,Wunderground v.1.15,2013-06-18 07:05:00,
2013-06-18 03:07:00,63.0,61.8,29.87,SE,129,0.0,0.0,96,0.00,,,0.01,Wunderground v.1.15,2013-06-18 07:07:00,
2013-06-18 03:11:00,63.0,61.8,29.87,WSW,238,0.0,0.0,96,0.00,,,0.01,Wunderground v.1.15,2013-06-18 07:11:00,
2013-06-18 03:12:00,63.0,61.8,29.87,WSW,238,0.0,0.0,96,0.00,,,0.01,Wunderground v.1.15,2013-06-18 07:12:00,
2013-06-18 03:13:00,63.0,61.8,29.87,WSW,238,0.0,0.0,96,0.00,,,0.01,Wunderground v.1.15,2013-06-18 07:13:00,
2013-06-18 03:16:00,63.1,61.9,29.88,WSW,238,0.0,0.0,96,0.00,,,0.01,Wunderground v.1.15,2013-06-18 07:16:00,
2013-06-18 03:17:00,63.0,61.8,29.88,WSW,238,0.0,0.0,96,0.00,,,0.01,Wunderground v.1.15,2013-06-18 07:17:00,
2013-06-18 03:19:00,63.1,61.9,29.88,WSW,238,0.0,0.0,96,0.00,,,0.01,Wunderground v.1.15,2013-06-18 07:19:00,
2013-06-18 03:20:00,63.0,61.8,29.89,WSW,238,0.0,0.0,96,0.00,,,0.01,Wunderground v.1.15,2013-06-18 07:20:00,
2013-06-18 03:22:00,63.1,61.9,29.89,WSW,238,0.0,0.0,96,0.00,,,0.01,Wunderground v.1.15,2013-06-18 07:22:00,
2013-06-18 03:25:00,63.1,61.9,29.89,WSW,238,0.0,0.0,96,0.00,,,0.01,Wunderground v.1.15,2013-06-18 07:25:00,
2013-06-18 03:27:00,63.1,61.9,29.88,WSW,238,0.0,0.0,96,0.00,,,0.01,Wunderground v.1.15,2013-06-18 07:27:00,
2013-06-18 03:28:00,63.1,61.9,29.89,WSW,238,0.0,0.0,96,0.00,,,0.01,Wunderground v.1.15,2013-06-18 07:28:00,
2013-06-18 03:30:00,63.1,61.9,29.89,WSW,238,0.0,0.0,96,0.00,,,0.01,Wunderground v.1.15,2013-06-18 07:30:00,
2013-06-18 03:31:00,63.1,61.9,29.89,WSW,238,0.0,0.0,96,0.00,,,0.01,Wunderground v.1.15,2013-06-18 07:31:00,
2013-06-18 03:32:00,63.2,62.0,29.89,WSW,238,0.0,0.0,96,0.00,,,0.01,Wunderground v.1.15,2013-06-18 07:32:00,
2013-06-18 03:33:00,63.2,62.0,29.89,WSW,238,0.0,0.0,96,0.00,,,0.01,Wunderground v.1.15,2013-06-18 07:33:00,
2013-06-18 03:38:00,63.2,62.0,29.89,WSW,238,0.0,0.0,96,0.00,,,0.01,Wunderground v.1.15,2013-06-18 07:38:00,
2013-06-18 03:40:00,63.2,62.0,29.89,WSW,238,0.0,0.0,96,0.00,,,0.01,Wunderground v.1.15,2013-06-18 07:40:00,
2013-06-18 03:42:00,63.2,62.0,29.89,WSW,238,0.0,0.0,96,0.00,,,0.01,Wunderground v.1.15,2013-06-18 07:42:00,
2013-06-18 03:45:00,63.2,62.0,29.90,NNW,348,0.0,1.0,96,0.00,,,0.01,Wunderground v.1.15,2013-06-18 07:45:00,
2013-06-18 03:46:00,63.2,62.0,29.90,NNW,348,0.0,1.0,96,0.00,,,0.01,Wunderground v.1.15,2013-06-18 07:46:00,
2013-06-18 03:47:00,63.2,62.0,29.90,NNW,348,0.0,1.0,96,0.00,,,0.01,Wunderground v.1.15,2013-06-18 07:47:00,
2013-06-18 03:48:00,63.2,62.0,29.91,NNW,348,0.0,1.0,96,0.00,,,0.01,Wunderground v.1.15,2013-06-18 07:48:00,
2013-06-18 03:55:00,63.2,62.0,29.91,North,350,0.0,1.0,96,0.00,,,0.01,Wunderground v.1.15,2013-06-18 07:55:00,
2013-06-18 03:58:00,63.2,62.0,29.91,SSW,209,0.0,2.0,96,0.00,,,0.01,Wunderground v.1.15,2013-06-18 07:58:00,
2013-06-18 03:59:00,63.2,62.0,29.91,SW,217,0.0,3.0,96,0.00,,,0.01,Wunderground v.1.15,2013-06-18 07:59:00,
2013-06-18 04:00:00,63.3,62.1,29.92,SSW,205,1.0,1.0,96,0.00,,,0.01,Wunderground v.1.15,2013-06-18 08:00:00,
2013-06-18 04:02:00,63.3,62.1,29.92,SSW,205,1.0,1.0,96,0.00,,,0.01,Wunderground v.1.15,2013-06-18 08:02:00,
2013-06-18 04:06:00,63.3,62.1,29.91,SSW,205,1.0,1.0,96,0.00,,,0.01,Wunderground v.1.15,2013-06-18 08:06:00,
2013-06-18 04:08:00,63.3,62.1,29.91,SSW,205,1.0,1.0,96,0.00,,,0.01,Wunderground v.1.15,2013-06-18 08:08:00,
2013-06-18 04:09:00,63.2,62.0,29.92,SSW,205,1.0,1.0,96,0.00,,,0.01,Wunderground v.1.15,2013-06-18 08:09:00,
2013-06-18 04:11:00,63.2,62.0,29.92,SSW,205,0.0,0.0,96,0.00,,,0.01,Wunderground v.1.15,2013-06-18 08:11:00,
2013-06-18 04:12:00,63.3,62.1,29.92,SSW,205,0.0,0.0,96,0.00,,,0.01,Wunderground v.1.15,2013-06-18 08:12:00,
2013-06-18 04:17:00,63.2,62.0,29.92,NNE,15,0.0,1.0,96,0.00,,,0.01,Wunderground v.1.15,2013-06-18 08:17:00,
2013-06-18 04:18:00,63.2,62.0,29.91,NNE,15,0.0,1.0,96,0.00,,,0.01,Wunderground v.1.15,2013-06-18 08:18:00,
2013-06-18 04:20:00,63.2,62.0,29.91,NNE,15,0.0,1.0,96,0.00,,,0.01,Wunderground v.1.15,2013-06-18 08:20:00,
2013-06-18 04:21:00,63.2,62.0,29.91,NNE,15,0.0,0.0,96,0.00,,,0.01,Wunderground v.1.15,2013-06-18 08:21:00,
2013-06-18 04:24:00,63.1,61.9,29.91,NNE,15,0.0,0.0,96,0.00,,,0.01,Wunderground v.1.15,2013-06-18 08:24:00,
2013-06-18 04:25:00,63.1,61.9,29.91,NNE,15,0.0,0.0,96,0.00,,,0.01,Wunderground v.1.15,2013-06-18 08:25:00,
2013-06-18 04:30:00,63.1,61.9,29.92,NNE,15,0.0,0.0,96,0.00,,,0.01,Wunderground v.1.15,2013-06-18 08:30:00,
2013-06-18 04:31:00,63.2,62.0,29.92,NNE,15,0.0,0.0,96,0.00,,,0.01,Wunderground v.1.15,2013-06-18 08:31:00,
2013-06-18 04:33:00,63.2,62.0,29.92,NNE,15,0.0,0.0,96,0.00,,,0.01,Wunderground v.1.15,2013-06-18 08:33:00,
2013-06-18 04:35:00,63.2,62.0,29.92,NNE,15,0.0,0.0,96,0.00,,,0.01,Wunderground v.1.15,2013-06-18 08:35:00,
2013-06-18 04:38:00,63.2,62.0,29.92,NNE,15,0.0,0.0,96,0.00,,,0.01,Wunderground v.1.15,2013-06-18 08:38:00,
2013-06-18 04:42:00,63.2,62.0,29.92,NNE,15,0.0,0.0,96,0.00,,,0.01,Wunderground v.1.15,2013-06-18 08:42:00,
2013-06-18 04:43:00,63.2,62.0,29.92,NNE,15,0.0,0.0,96,0.00,,,0.01,Wunderground v.1.15,2013-06-18 08:43:00,
2013-06-18 04:44:00,63.3,62.1,29.92,NNE,15,0.0,0.0,96,0.00,,,0.01,Wunderground v.1.15,2013-06-18 08:44:00,
2013-06-18 04:48:00,63.3,62.1,29.92,NNE,15,0.0,0.0,96,0.00,,,0.01,Wunderground v.1.15,2013-06-18 08:48:00,
2013-06-18 04:51:00,63.3,62.1,29.92,NNE,15,0.0,0.0,96,0.00,,,0.01,Wunderground v.1.15,2013-06-18 08:51:00,
2013-06-18 04:53:00,63.2,62.0,29.92,NNE,15,0.0,0.0,96,0.00,,,0.01,Wunderground v.1.15,2013-06-18 08:53:00,
2013-06-18 04:55:00,63.2,62.0,29.92,NNE,15,0.0,0.0,96,0.00,,,0.01,Wunderground v.1.15,2013-06-18 08:55:00,
2013-06-18 04:57:00,63.2,62.0,29.92,NNE,15,0.0,0.0,96,0.00,,,0.01,Wunderground v.1.15,2013-06-18 08:57:00,
2013-06-18 05:00:00,63.3,62.1,29.92,NNE,15,0.0,0.0,96,0.00,,,0.01,Wunderground v.1.15,2013-06-18 09:00:00,
2013-06-18 05:02:00,63.4,62.2,29.92,NNE,15,0.0,0.0,96,0.00,,,0.01,Wunderground v.1.15,2013-06-18 09:02:00,
2013-06-18 05:05:00,63.4,62.2,29.92,NNE,15,0.0,0.0,96,0.00,,,0.01,Wunderground v.1.15,2013-06-18 09:05:00,
2013-06-18 05:07:00,63.4,62.2,29.92,NNE,15,0.0,0.0,96,0.00,,,0.01,Wunderground v.1.15,2013-06-18 09:07:00,
2013-06-18 05:09:00,63.4,62.2,29.91,NNE,16,0.0,0.0,96,0.00,,,0.01,Wunderground v.1.15,2013-06-18 09:09:00,
2013-06-18 05:10:00,63.4,62.2,29.91,NNE,16,0.0,0.0,96,0.00,,,0.01,Wunderground v.1.15,2013-06-18 09:10:00,
2013-06-18 05:14:00,63.4,62.2,29.92,NNE,16,0.0,0.0,96,0.00,,,0.01,Wunderground v.1.15,2013-06-18 09:14:00,
2013-06-18 05:15:00,63.4,62.2,29.92,NNE,16,0.0,0.0,96,0.00,,,0.01,Wunderground v.1.15,2013-06-18 09:15:00,
2013-06-18 05:17:00,63.4,62.2,29.92,NNE,16,0.0,0.0,96,0.00,,,0.01,Wunderground v.1.15,2013-06-18 09:17:00,
2013-06-18 05:22:00,63.4,62.2,29.92,NNE,16,0.0,0.0,96,0.00,,,0.01,Wunderground v.1.15,2013-06-18 09:22:00,
2013-06-18 05:23:00,63.4,62.2,29.92,NNE,16,0.0,0.0,96,0.00,,,0.01,Wunderground v.1.15,2013-06-18 09:23:00,
2013-06-18 05:25:00,63.4,62.2,29.92,NNE,16,0.0,0.0,96,0.00,,,0.01,Wunderground v.1.15,2013-06-18 09:25:00,
2013-06-18 05:26:00,63.3,62.1,29.92,NNE,16,0.0,0.0,96,0.00,,,0.01,Wunderground v.1.15,2013-06-18 09:26:00,
2013-06-18 05:29:00,63.3,62.1,29.92,NNE,16,0.0,0.0,96,0.00,,,0.01,Wunderground v.1.15,2013-06-18 09:29:00,
2013-06-18 05:32:00,63.3,62.1,29.92,NNE,16,0.0,0.0,96,0.00,,,0.01,Wunderground v.1.15,2013-06-18 09:32:00,
2013-06-18 05:37:00,63.3,62.1,29.92,NNE,16,0.0,0.0,96,0.00,,,0.01,Wunderground v.1.15,2013-06-18 09:37:00,
2013-06-18 05:39:00,63.3,62.1,29.91,NNE,16,0.0,0.0,96,0.00,,,0.01,Wunderground v.1.15,2013-06-18 09:39:00,
2013-06-18 05:41:00,63.3,62.1,29.91,NNE,16,0.0,0.0,96,0.00,,,0.01,Wunderground v.1.15,2013-06-18 09:41:00,
2013-06-18 05:44:00,63.4,62.2,29.91,NNE,16,0.0,0.0,96,0.00,,,0.01,Wunderground v.1.15,2013-06-18 09:44:00,
2013-06-18 05:46:00,63.4,62.2,29.91,NNE,16,0.0,0.0,96,0.00,,,0.01,Wunderground v.1.15,2013-06-18 09:46:00,
2013-06-18 05:48:00,63.4,62.2,29.91,NNE,16,0.0,0.0,96,0.00,,,0.01,Wunderground v.1.15,2013-06-18 09:48:00,
2013-06-18 05:49:00,63.4,62.2,29.91,NNE,16,0.0,0.0,96,0.00,,,0.01,Wunderground v.1.15,2013-06-18 09:49:00,
2013-06-18 05:52:00,63.3,62.1,29.91,NNE,16,0.0,0.0,96,0.00,,,0.01,Wunderground v.1.15,2013-06-18 09:52:00,
2013-06-18 05:55:00,63.3,62.1,29.92,NNE,16,0.0,0.0,96,0.00,,,0.01,Wunderground v.1.15,2013-06-18 09:55:00,
2013-06-18 05:58:00,63.3,62.1,29.92,NNE,16,0.0,0.0,96,0.00,,,0.01,Wunderground v.1.15,2013-06-18 09:58:00,
2013-06-18 06:02:00,63.3,62.1,29.92,NNE,16,0.0,0.0,96,0.00,,,0.01,Wunderground v.1.15,2013-06-18 10:02:00,
2013-06-18 06:04:00,63.3,62.1,29.93,NNE,16,0.0,0.0,96,0.00,,,0.01,Wunderground v.1.15,2013-06-18 10:04:00,
2013-06-18 06:06:00,63.2,62.0,29.93,NNE,16,0.0,0.0,96,0.00,,,0.01,Wunderground v.1.15,2013-06-18 10:06:00,
2013-06-18 06:07:00,63.2,62.0,29.93,NNE,16,0.0,0.0,96,0.00,,,0.01,Wunderground v.1.15,2013-06-18 10:07:00,
2013-06-18 06:08:00,63.2,62.0,29.93,NNE,16,0.0,0.0,96,0.00,,,0.01,Wunderground v.1.15,2013-06-18 10:08:00,
2013-06-18 06:09:00,63.3,62.1,29.93,NNE,16,0.0,0.0,96,0.00,,,0.01,Wunderground v.1.15,2013-06-18 10:09:00,
2013-06-18 06:13:00,63.3,62.1,29.94,NNE,16,0.0,0.0,96,0.00,,,0.01,Wunderground v.1.15,2013-06-18 10:13:00,
2013-06-18 06:15:00,63.3,62.1,29.93,NNE,16,0.0,0.0,96,0.00,,,0.01,Wunderground v.1.15,2013-06-18 10:15:00,
2013-06-18 06:16:00,63.3,62.1,29.94,NNE,16,0.0,0.0,96,0.00,,,0.01,Wunderground v.1.15,2013-06-18 10:16:00,
2013-06-18 06:17:00,63.3,62.1,29.94,NNE,16,0.0,0.0,96,0.00,,,0.01,Wunderground v.1.15,2013-06-18 10:17:00,
2013-06-18 06:21:00,63.3,62.1,29.94,NNE,16,0.0,0.0,96,0.00,,,0.01,Wunderground v.1.15,2013-06-18 10:21:00,
2013-06-18 06:23:00,63.2,62.0,29.94,NNE,16,0.0,0.0,96,0.00,,,0.01,Wunderground v.1.15,2013-06-18 10:23:00,
2013-06-18 06:24:00,63.3,62.1,29.94,NNE,16,0.0,0.0,96,0.00,,,0.01,Wunderground v.1.15,2013-06-18 10:24:00,
2013-06-18 06:27:00,63.2,62.0,29.94,NNE,16,0.0,0.0,96,0.00,,,0.01,Wunderground v.1.15,2013-06-18 10:27:00,
2013-06-18 06:28:00,63.3,62.1,29.94,NNE,16,0.0,0.0,96,0.00,,,0.01,Wunderground v.1.15,2013-06-18 10:28:00,
2013-06-18 06:31:00,63.3,62.1,29.94,NNE,16,0.0,0.0,96,0.00,,,0.01,Wunderground v.1.15,2013-06-18 10:31:00,
2013-06-18 06:32:00,63.3,62.1,29.94,NNE,16,0.0,0.0,96,0.00,,,0.01,Wunderground v.1.15,2013-06-18 10:32:00,
2013-06-18 06:35:00,63.3,62.1,29.94,NNE,16,0.0,0.0,96,0.00,,,0.01,Wunderground v.1.15,2013-06-18 10:35:00,
2013-06-18 06:37:00,63.3,62.1,29.94,NNE,16,0.0,0.0,96,0.00,,,0.01,Wunderground v.1.15,2013-06-18 10:37:00,
2013-06-18 06:40:00,63.3,62.1,29.95,NNE,16,0.0,0.0,96,0.00,,,0.01,Wunderground v.1.15,2013-06-18 10:40:00,
2013-06-18 06:43:00,63.4,62.2,29.95,NNE,16,0.0,0.0,96,0.00,,,0.01,Wunderground v.1.15,2013-06-18 10:43:00,
2013-06-18 06:44:00,63.4,62.2,29.95,NNE,16,0.0,0.0,96,0.00,,,0.01,Wunderground v.1.15,2013-06-18 10:44:00,
2013-06-18 06:47:00,63.4,62.2,29.95,NNE,16,0.0,0.0,96,0.00,,,0.01,Wunderground v.1.15,2013-06-18 10:47:00,
2013-06-18 06:48:00,63.4,62.2,29.95,NNE,16,0.0,0.0,96,0.00,,,0.01,Wunderground v.1.15,2013-06-18 10:48:00,
2013-06-18 06:53:00,63.4,62.2,29.95,NNE,16,0.0,0.0,96,0.00,,,0.01,Wunderground v.1.15,2013-06-18 10:53:00,
2013-06-18 06:55:00,63.4,62.2,29.95,NNE,18,0.0,2.0,96,0.00,,,0.01,Wunderground v.1.15,2013-06-18 10:55:00,
2013-06-18 06:57:00,63.4,62.2,29.95,NNE,21,0.0,2.0,96,0.00,,,0.01,Wunderground v.1.15,2013-06-18 10:57:00,
2013-06-18 07:00:00,63.3,62.1,29.95,NNE,21,0.0,2.0,96,0.00,,,0.01,Wunderground v.1.15,2013-06-18 11:00:00,
2013-06-18 07:02:00,63.2,62.0,29.95,NE,39,0.0,2.0,96,0.00,,,0.01,Wunderground v.1.15,2013-06-18 11:02:00,
2013-06-18 07:03:00,63.3,62.1,29.95,NE,39,0.0,2.0,96,0.00,,,0.01,Wunderground v.1.15,2013-06-18 11:03:00,
2013-06-18 07:06:00,63.2,62.0,29.95,NE,39,0.0,2.0,96,0.00,,,0.01,Wunderground v.1.15,2013-06-18 11:06:00,
2013-06-18 07:07:00,63.2,62.0,29.95,NE,39,0.0,2.0,96,0.00,,,0.01,Wunderground v.1.15,2013-06-18 11:07:00,
2013-06-18 07:09:00,63.2,62.0,29.95,NNE,31,0.0,2.0,96,0.00,,,0.01,Wunderground v.1.15,2013-06-18 11:09:00,
2013-06-18 07:12:00,63.2,62.0,29.95,North,360,0.0,2.0,96,0.00,,,0.01,Wunderground v.1.15,2013-06-18 11:12:00,
2013-06-18 07:13:00,63.2,62.0,29.95,North,360,0.0,2.0,96,0.00,,,0.01,Wunderground v.1.15,2013-06-18 11:13:00,
2013-06-18 07:15:00,63.3,62.4,29.95,WNW,290,0.0,2.0,97,0.00,,,0.01,Wunderground v.1.15,2013-06-18 11:15:00,
2013-06-18 07:18:00,63.3,62.4,29.95,WNW,290,0.0,2.0,97,0.00,,,0.01,Wunderground v.1.15,2013-06-18 11:18:00,
2013-06-18 07:20:00,63.3,62.4,29.95,ENE,57,0.0,2.0,97,0.00,,,0.01,Wunderground v.1.15,2013-06-18 11:20:00,
2013-06-18 07:25:00,63.4,62.2,29.95,ENE,57,0.0,0.0,96,0.00,,,0.01,Wunderground v.1.15,2013-06-18 11:25:00,
2013-06-18 07:26:00,63.4,62.2,29.95,ENE,57,0.0,0.0,96,0.00,,,0.01,Wunderground v.1.15,2013-06-18 11:26:00,
2013-06-18 07:27:00,63.4,62.2,29.95,ENE,57,0.0,0.0,96,0.00,,,0.01,Wunderground v.1.15,2013-06-18 11:27:00,
2013-06-18 07:32:00,63.5,62.3,29.95,ENE,57,0.0,0.0,96,0.00,,,0.01,Wunderground v.1.15,2013-06-18 11:32:00,
2013-06-18 07:33:00,63.5,62.3,29.95,ENE,57,0.0,0.0,96,0.00,,,0.01,Wunderground v.1.15,2013-06-18 11:33:00,
2013-06-18 07:39:00,63.6,62.4,29.95,ENE,57,0.0,0.0,96,0.00,,,0.02,Wunderground v.1.15,2013-06-18 11:39:00,
2013-06-18 07:40:00,63.6,62.4,29.95,ENE,57,0.0,0.0,96,0.00,,,0.02,Wunderground v.1.15,2013-06-18 11:40:00,
2013-06-18 07:43:00,63.7,62.5,29.96,NE,50,0.0,0.0,96,0.00,,,0.02,Wunderground v.1.15,2013-06-18 11:43:00,
2013-06-18 07:46:00,63.7,62.5,29.96,NE,50,0.0,0.0,96,0.00,,,0.02,Wunderground v.1.15,2013-06-18 11:46:00,
2013-06-18 07:48:00,63.7,62.8,29.96,North,360,0.0,0.0,97,0.00,,,0.02,Wunderground v.1.15,2013-06-18 11:48:00,
2013-06-18 07:51:00,63.8,62.9,29.97,North,360,0.0,0.0,97,0.00,,,0.02,Wunderground v.1.15,2013-06-18 11:51:00,
2013-06-18 07:53:00,63.8,62.9,29.96,North,360,0.0,0.0,97,0.00,,,0.02,Wunderground v.1.15,2013-06-18 11:53:00,
2013-06-18 07:58:00,63.9,63.0,29.96,North,360,0.0,0.0,97,0.00,,,0.02,Wunderground v.1.15,2013-06-18 11:58:00,
2013-06-18 08:00:00,64.0,63.1,29.96,North,360,0.0,0.0,97,0.00,,,0.02,Wunderground v.1.15,2013-06-18 12:00:00,
2013-06-18 08:01:00,64.0,63.1,29.96,North,360,0.0,0.0,97,0.00,,,0.02,Wunderground v.1.15,2013-06-18 12:01:00,
2013-06-18 08:03:00,64.0,63.1,29.96,North,360,0.0,0.0,97,0.00,,,0.02,Wunderground v.1.15,2013-06-18 12:03:00,
2013-06-18 08:05:00,64.1,63.2,29.96,North,360,0.0,0.0,97,0.00,,,0.02,Wunderground v.1.15,2013-06-18 12:05:00,
2013-06-18 08:06:00,64.1,63.2,29.96,North,360,0.0,0.0,97,0.00,,,0.02,Wunderground v.1.15,2013-06-18 12:06:00,
2013-06-18 08:09:00,64.1,63.2,29.95,North,360,0.0,0.0,97,0.00,,,0.02,Wunderground v.1.15,2013-06-18 12:09:00,
2013-06-18 08:10:00,64.2,63.3,29.95,North,360,0.0,0.0,97,0.00,,,0.02,Wunderground v.1.15,2013-06-18 12:10:00,
2013-06-18 08:13:00,64.3,63.4,29.95,North,360,0.0,0.0,97,0.00,,,0.02,Wunderground v.1.15,2013-06-18 12:13:00,
2013-06-18 08:14:00,64.3,63.4,29.95,North,360,0.0,0.0,97,0.00,,,0.02,Wunderground v.1.15,2013-06-18 12:14:00,
2013-06-18 08:18:00,64.5,63.6,29.95,North,360,0.0,0.0,97,0.00,,,0.02,Wunderground v.1.15,2013-06-18 12:18:00,
2013-06-18 08:19:00,64.7,63.8,29.95,North,360,0.0,0.0,97,0.00,,,0.02,Wunderground v.1.15,2013-06-18 12:19:00,
2013-06-18 08:21:00,64.7,63.8,29.95,North,360,0.0,0.0,97,0.00,,,0.02,Wunderground v.1.15,2013-06-18 12:21:00,
2013-06-18 08:23:00,64.8,63.9,29.95,North,360,0.0,0.0,97,0.00,,,0.02,Wunderground v.1.15,2013-06-18 12:23:00,
2013-06-18 08:29:00,65.0,64.1,29.95,North,360,0.0,0.0,97,0.00,,,0.02,Wunderground v.1.15,2013-06-18 12:29:00,
2013-06-18 08:30:00,65.0,64.1,29.95,North,360,0.0,0.0,97,0.00,,,0.02,Wunderground v.1.15,2013-06-18 12:30:00,
2013-06-18 08:31:00,65.0,64.1,29.95,North,360,0.0,0.0,97,0.00,,,0.02,Wunderground v.1.15,2013-06-18 12:31:00,
2013-06-18 08:33:00,65.1,64.2,29.96,North,360,0.0,0.0,97,0.00,,,0.02,Wunderground v.1.15,2013-06-18 12:33:00,
2013-06-18 08:35:00,65.1,64.2,29.96,North,360,0.0,0.0,97,0.00,,,0.02,Wunderground v.1.15,2013-06-18 12:35:00,
2013-06-18 08:36:00,65.2,64.3,29.96,North,360,0.0,0.0,97,0.00,,,0.02,Wunderground v.1.15,2013-06-18 12:36:00,
2013-06-18 08:37:00,65.3,64.4,29.96,North,360,0.0,0.0,97,0.00,,,0.02,Wunderground v.1.15,2013-06-18 12:37:00,
2013-06-18 08:43:00,65.8,64.9,29.97,North,360,0.0,0.0,97,0.00,,,0.02,Wunderground v.1.15,2013-06-18 12:43:00,
2013-06-18 08:45:00,65.9,65.0,29.97,North,360,0.0,0.0,97,0.00,,,0.02,Wunderground v.1.15,2013-06-18 12:45:00,
2013-06-18 08:48:00,66.0,65.1,29.97,North,360,0.0,0.0,97,0.00,,,0.02,Wunderground v.1.15,2013-06-18 12:48:00,
2013-06-18 08:50:00,66.0,65.1,29.97,North,360,0.0,0.0,97,0.00,,,0.02,Wunderground v.1.15,2013-06-18 12:50:00,
2013-06-18 08:52:00,66.0,65.1,29.97,North,360,0.0,0.0,97,0.00,,,0.02,Wunderground v.1.15,2013-06-18 12:52:00,
2013-06-18 08:55:00,66.0,65.1,29.98,North,360,0.0,0.0,97,0.00,,,0.02,Wunderground v.1.15,2013-06-18 12:55:00,
2013-06-18 08:57:00,66.2,65.3,29.98,North,360,0.0,0.0,97,0.00,,,0.02,Wunderground v.1.15,2013-06-18 12:57:00,
2013-06-18 08:58:00,66.3,65.4,29.98,North,360,0.0,0.0,97,0.00,,,0.02,Wunderground v.1.15,2013-06-18 12:58:00,
2013-06-18 08:59:00,66.4,65.5,29.98,North,360,0.0,0.0,97,0.00,,,0.02,Wunderground v.1.15,2013-06-18 12:59:00,
2013-06-18 09:03:00,66.5,65.6,29.97,North,360,0.0,0.0,97,0.00,,,0.02,Wunderground v.1.15,2013-06-18 13:03:00,
2013-06-18 09:04:00,66.6,65.7,29.97,North,360,0.0,0.0,97,0.00,,,0.02,Wunderground v.1.15,2013-06-18 13:04:00,
2013-06-18 09:07:00,66.6,65.7,29.97,North,360,0.0,0.0,97,0.00,,,0.02,Wunderground v.1.15,2013-06-18 13:07:00,
2013-06-18 09:08:00,66.5,65.6,29.97,North,360,0.0,0.0,97,0.00,,,0.02,Wunderground v.1.15,2013-06-18 13:08:00,
2013-06-18 09:10:00,66.5,65.6,29.97,North,360,0.0,0.0,97,0.00,,,0.02,Wunderground v.1.15,2013-06-18 13:10:00,
2013-06-18 09:15:00,66.4,65.5,29.97,North,360,0.0,0.0,97,0.00,,,0.02,Wunderground v.1.15,2013-06-18 13:15:00,
2013-06-18 09:18:00,66.6,65.7,29.97,North,360,0.0,0.0,97,0.00,,,0.02,Wunderground v.1.15,2013-06-18 13:18:00,
2013-06-18 09:19:00,66.9,66.0,29.97,North,360,0.0,0.0,97,0.00,,,0.02,Wunderground v.1.15,2013-06-18 13:19:00,
2013-06-18 09:22:00,67.2,66.3,29.97,North,360,0.0,0.0,97,0.00,,,0.02,Wunderground v.1.15,2013-06-18 13:22:00,
2013-06-18 09:25:00,67.1,66.2,29.97,North,360,0.0,0.0,97,0.00,,,0.02,Wunderground v.1.15,2013-06-18 13:25:00,
2013-06-18 09:27:00,67.1,66.2,29.97,North,360,0.0,0.0,97,0.00,,,0.02,Wunderground v.1.15,2013-06-18 13:27:00,
2013-06-18 09:28:00,67.0,66.1,29.97,North,360,0.0,0.0,97,0.00,,,0.02,Wunderground v.1.15,2013-06-18 13:28:00,
2013-06-18 09:29:00,67.1,66.2,29.97,North,360,0.0,0.0,97,0.00,,,0.02,Wunderground v.1.15,2013-06-18 13:29:00,
2013-06-18 09:33:00,67.2,66.3,29.97,North,360,0.0,1.0,97,0.00,,,0.02,Wunderground v.1.15,2013-06-18 13:33:00,
2013-06-18 09:35:00,67.2,66.3,29.97,NE,55,0.0,1.0,97,0.00,,,0.02,Wunderground v.1.15,2013-06-18 13:35:00,
2013-06-18 09:37:00,67.1,65.9,29.97,NE,55,0.0,1.0,96,0.00,,,0.02,Wunderground v.1.15,2013-06-18 13:37:00,
2013-06-18 09:40:00,67.2,66.0,29.97,NE,55,0.0,1.0,96,0.00,,,0.02,Wunderground v.1.15,2013-06-18 13:40:00,
2013-06-18 09:42:00,67.3,66.1,29.97,NE,55,0.0,1.0,96,0.00,,,0.02,Wunderground v.1.15,2013-06-18 13:42:00,
2013-06-18 09:44:00,67.5,66.3,29.97,NE,55,0.0,1.0,96,0.00,,,0.02,Wunderground v.1.15,2013-06-18 13:44:00,
2013-06-18 09:46:00,67.6,66.4,29.97,NE,55,0.0,1.0,96,0.00,,,0.02,Wunderground v.1.15,2013-06-18 13:46:00,
2013-06-18 09:47:00,67.6,66.1,29.97,NE,55,0.0,1.0,95,0.00,,,0.02,Wunderground v.1.15,2013-06-18 13:47:00,
2013-06-18 09:49:00,67.7,66.2,29.97,NE,55,0.0,1.0,95,0.00,,,0.02,Wunderground v.1.15,2013-06-18 13:49:00,
2013-06-18 09:52:00,68.1,66.6,29.97,NE,55,0.0,0.0,95,0.00,,,0.02,Wunderground v.1.15,2013-06-18 13:52:00,
2013-06-18 09:55:00,68.5,67.0,29.97,NE,55,0.0,0.0,95,0.00,,,0.02,Wunderground v.1.15,2013-06-18 13:55:00,
2013-06-18 09:57:00,68.5,66.7,29.97,NE,55,0.0,0.0,94,0.00,,,0.02,Wunderground v.1.15,2013-06-18 13:57:00,
2013-06-18 09:58:00,68.5,66.7,29.97,NE,55,0.0,1.0,94,0.00,,,0.02,Wunderground v.1.15,2013-06-18 13:58:00,
2013-06-18 09:59:00,68.6,66.8,29.97,NNE,16,0.0,1.0,94,0.00,,,0.02,Wunderground v.1.15,2013-06-18 13:59:00,
2013-06-18 10:01:00,68.7,66.9,29.97,WSW,251,0.0,2.0,94,0.00,,,0.02,Wunderground v.1.15,2013-06-18 14:01:00,
2013-06-18 10:02:00,68.8,67.0,29.97,WSW,251,0.0,2.0,94,0.00,,,0.02,Wunderground v.1.15,2013-06-18 14:02:00,
2013-06-18 10:04:00,68.9,67.1,29.97,NNW,342,0.0,2.0,94,0.00,,,0.02,Wunderground v.1.15,2013-06-18 14:04:00,
2013-06-18 10:05:00,69.0,66.9,29.97,WSW,247,0.0,2.0,93,0.00,,,0.02,Wunderground v.1.15,2013-06-18 14:05:00,
2013-06-18 10:07:00,69.1,66.7,29.97,WNW,285,0.0,2.0,92,0.00,,,0.02,Wunderground v.1.15,2013-06-18 14:07:00,
2013-06-18 10:11:00,69.3,66.9,29.97,WNW,284,0.0,1.0,92,0.00,,,0.02,Wunderground v.1.15,2013-06-18 14:11:00,
2013-06-18 10:12:00,69.4,66.7,29.97,WNW,287,0.0,1.0,91,0.00,,,0.02,Wunderground v.1.15,2013-06-18 14:12:00,
2013-06-18 10:17:00,69.7,67.0,29.97,NW,315,0.0,1.0,91,0.00,,,0.02,Wunderground v.1.15,2013-06-18 14:17:00,
2013-06-18 10:18:00,69.8,67.1,29.97,NW,315,0.0,1.0,91,0.00,,,0.02,Wunderground v.1.15,2013-06-18 14:18:00,
2013-06-18 10:19:00,69.9,66.8,29.97,SW,236,0.0,3.0,90,0.00,,,0.02,Wunderground v.1.15,2013-06-18 14:19:00,
2013-06-18 10:22:00,70.1,66.7,29.97,NNE,13,0.0,1.0,89,0.00,,,0.02,Wunderground v.1.15,2013-06-18 14:22:00,
2013-06-18 10:26:00,70.6,66.2,29.97,North,11,1.0,2.0,86,0.00,,,0.02,Wunderground v.1.15,2013-06-18 14:26:00,
2013-06-18 10:27:00,70.7,66.0,29.97,North,11,1.0,2.0,85,0.00,,,0.02,Wunderground v.1.15,2013-06-18 14:27:00,
2013-06-18 10:32:00,71.1,66.7,29.97,North,10,1.0,1.0,86,0.00,,,0.02,Wunderground v.1.15,2013-06-18 14:32:00,
2013-06-18 10:33:00,71.3,66.9,29.97,NE,34,1.0,1.0,86,0.00,,,0.02,Wunderground v.1.15,2013-06-18 14:33:00,
2013-06-18 10:36:00,71.5,67.1,29.97,NE,34,0.0,1.0,86,0.00,,,0.02,Wunderground v.1.15,2013-06-18 14:36:00,
2013-06-18 10:37:00,71.7,67.6,29.97,NE,34,0.0,1.0,87,0.00,,,0.02,Wunderground v.1.15,2013-06-18 14:37:00,
2013-06-18 10:40:00,71.9,66.8,29.97,SSE,153,0.0,1.0,84,0.00,,,0.02,Wunderground v.1.15,2013-06-18 14:40:00,
2013-06-18 10:41:00,72.1,67.3,29.97,SSE,153,0.0,0.0,85,0.00,,,0.02,Wunderground v.1.15,2013-06-18 14:41:00,
2013-06-18 10:43:00,72.2,66.7,29.97,SSE,153,0.0,0.0,83,0.00,,,0.02,Wunderground v.1.15,2013-06-18 14:43:00,
2013-06-18 10:44:00,72.3,67.2,29.97,SSE,153,0.0,0.0,84,0.00,,,0.02,Wunderground v.1.15,2013-06-18 14:44:00,
2013-06-18 10:46:00,72.6,66.4,29.96,ESE,120,0.0,2.0,81,0.00,,,0.02,Wunderground v.1.15,2013-06-18 14:46:00,
2013-06-18 10:48:00,72.8,67.7,29.96,East,101,0.0,2.0,84,0.00,,,0.02,Wunderground v.1.15,2013-06-18 14:48:00,
2013-06-18 10:49:00,72.9,66.7,29.97,East,101,0.0,2.0,81,0.00,,,0.02,Wunderground v.1.15,2013-06-18 14:49:00,
2013-06-18 10:51:00,73.1,67.6,29.97,NE,50,0.0,2.0,83,0.00,,,0.02,Wunderground v.1.15,2013-06-18 14:51:00,
2013-06-18 10:53:00,73.1,67.6,29.97,North,355,0.0,2.0,83,0.00,,,0.02,Wunderground v.1.15,2013-06-18 14:53:00,
2013-06-18 10:58:00,73.5,66.2,29.97,North,355,1.0,2.0,78,0.00,,,0.02,Wunderground v.1.15,2013-06-18 14:58:00,
2013-06-18 10:59:00,73.6,66.7,29.97,NE,34,1.0,2.0,79,0.00,,,0.02,Wunderground v.1.15,2013-06-18 14:59:00,
2013-06-18 11:00:00,73.8,66.9,29.97,NE,34,1.0,1.0,79,0.00,,,0.02,Wunderground v.1.15,2013-06-18 15:00:00,
2013-06-18 11:05:00,74.0,66.3,29.97,ESE,109,1.0,2.0,77,0.00,,,0.02,Wunderground v.1.15,2013-06-18 15:05:00,
2013-06-18 11:07:00,74.2,66.9,29.97,ESE,109,1.0,2.0,78,0.00,,,0.02,Wunderground v.1.15,2013-06-18 15:07:00,
2013-06-18 11:10:00,74.4,67.5,29.96,ENE,66,0.0,2.0,79,0.00,,,0.02,Wunderground v.1.15,2013-06-18 15:10:00,
2013-06-18 11:12:00,74.6,66.9,29.96,ESE,103,1.0,3.0,77,0.00,,,0.02,Wunderground v.1.15,2013-06-18 15:12:00,
2013-06-18 11:14:00,74.7,66.6,29.96,North,9,1.0,3.0,76,0.00,,,0.02,Wunderground v.1.15,2013-06-18 15:14:00,
2013-06-18 11:17:00,74.9,66.8,29.96,North,11,1.0,3.0,76,0.00,,,0.02,Wunderground v.1.15,2013-06-18 15:17:00,
2013-06-18 11:19:00,75.1,66.2,29.95,NE,55,1.0,3.0,74,0.00,,,0.02,Wunderground v.1.15,2013-06-18 15:19:00,
2013-06-18 11:20:00,75.1,67.0,29.95,NE,55,1.0,3.0,76,0.00,,,0.02,Wunderground v.1.15,2013-06-18 15:20:00,
2013-06-18 11:22:00,75.4,68.1,29.95,ENE,57,0.0,1.0,78,0.00,,,0.02,Wunderground v.1.15,2013-06-18 15:22:00,
2013-06-18 11:23:00,75.4,66.9,29.95,SSE,162,0.0,1.0,75,0.00,,,0.02,Wunderground v.1.15,2013-06-18 15:23:00,
2013-06-18 11:25:00,75.5,67.0,29.95,SSE,162,0.0,1.0,75,0.00,,,0.02,Wunderground v.1.15,2013-06-18 15:25:00,
2013-06-18 11:30:00,76.1,68.0,29.95,South,178,0.0,1.0,76,0.00,,,0.02,Wunderground v.1.15,2013-06-18 15:30:00,
2013-06-18 11:31:00,76.2,68.5,29.95,South,178,0.0,1.0,77,0.00,,,0.02,Wunderground v.1.15,2013-06-18 15:31:00,
2013-06-18 11:32:00,76.4,67.9,29.95,NNW,344,0.0,1.0,75,0.00,,,0.02,Wunderground v.1.15,2013-06-18 15:32:00,
2013-06-18 11:34:00,76.3,66.6,29.95,NW,321,0.0,1.0,72,0.00,,,0.02,Wunderground v.1.15,2013-06-18 15:34:00,
2013-06-18 11:37:00,76.4,67.1,29.95,NW,321,0.0,1.0,73,0.00,,,0.02,Wunderground v.1.15,2013-06-18 15:37:00,
2013-06-18 11:38:00,76.5,68.0,29.95,NW,321,0.0,1.0,75,0.00,,,0.02,Wunderground v.1.15,2013-06-18 15:38:00,
2013-06-18 11:39:00,76.6,67.3,29.95,NW,321,0.0,1.0,73,0.00,,,0.02,Wunderground v.1.15,2013-06-18 15:39:00,
2013-06-18 11:42:00,77.1,67.8,29.95,NNW,347,0.0,0.0,73,0.00,,,0.02,Wunderground v.1.15,2013-06-18 15:42:00,
2013-06-18 11:45:00,77.5,67.4,29.95,NNW,337,0.0,1.0,71,0.00,,,0.02,Wunderground v.1.15,2013-06-18 15:45:00,
2013-06-18 11:46:00,77.6,66.6,29.95,NNW,329,0.0,3.0,69,0.00,,,0.02,Wunderground v.1.15,2013-06-18 15:46:00,
2013-06-18 11:48:00,77.6,66.6,29.95,NNW,346,1.0,3.0,69,0.00,,,0.02,Wunderground v.1.15,2013-06-18 15:48:00,
2013-06-18 11:49:00,77.8,68.4,29.95,North,5,1.0,3.0,73,0.00,,,0.02,Wunderground v.1.15,2013-06-18 15:49:00,
2013-06-18 11:53:00,78.2,65.9,29.96,North,5,1.0,1.0,66,0.00,,,0.02,Wunderground v.1.15,2013-06-18 15:53:00,
2013-06-18 11:54:00,78.4,66.5,29.96,North,5,1.0,1.0,67,0.00,,,0.02,Wunderground v.1.15,2013-06-18 15:54:00,
2013-06-18 11:55:00,78.5,67.1,29.96,North,5,1.0,1.0,68,0.00,,,0.02,Wunderground v.1.15,2013-06-18 15:55:00,
2013-06-18 11:58:00,78.9,68.3,29.96,NNE,31,0.0,1.0,70,0.00,,,0.02,Wunderground v.1.15,2013-06-18 15:58:00,
2013-06-18 12:00:00,79.0,68.4,29.96,NNE,31,0.0,1.0,70,0.00,,,0.02,Wunderground v.1.15,2013-06-18 16:00:00,
2013-06-18 12:01:00,79.1,68.5,29.96,NNE,31,0.0,0.0,70,0.00,,,0.02,Wunderground v.1.15,2013-06-18 16:01:00,
2013-06-18 12:02:00,79.3,67.4,29.96,NNE,31,0.0,1.0,67,0.00,,,0.02,Wunderground v.1.15,2013-06-18 16:02:00,
2013-06-18 12:03:00,79.3,66.5,29.96,NNE,31,0.0,2.0,65,0.00,,,0.02,Wunderground v.1.15,2013-06-18 16:03:00,
2013-06-18 12:06:00,79.3,66.5,29.96,NNE,17,0.0,4.0,65,0.00,,,0.02,Wunderground v.1.15,2013-06-18 16:06:00,
2013-06-18 12:08:00,79.1,66.8,29.96,NE,38,1.0,4.0,66,0.00,,,0.02,Wunderground v.1.15,2013-06-18 16:08:00,
2013-06-18 12:09:00,79.1,67.6,29.96,NE,38,1.0,4.0,68,0.00,,,0.02,Wunderground v.1.15,2013-06-18 16:09:00,
2013-06-18 12:10:00,79.1,68.1,29.96,NE,38,1.0,1.0,69,0.00,,,0.02,Wunderground v.1.15,2013-06-18 16:10:00,
2013-06-18 12:11:00,64.4,62.9,29.99,NE,44,0.0,0.0,95,0.00,,,0.00,Wunderground v.1.15,2013-06-18 16:11:00,
2013-06-18 12:12:00,64.4,62.9,29.99,NE,44,0.0,0.0,95,0.00,,,0.00,Wunderground v.1.15,2013-06-18 16:12:00,
2013-06-18 12:13:00,64.3,62.8,29.99,NE,44,0.0,0.0,95,0.00,,,0.00,Wunderground v.1.15,2013-06-18 16:13:00,
2013-06-18 12:14:00,79.2,67.3,29.95,NE,38,1.0,1.0,67,0.00,,,0.02,Wunderground v.1.15,2013-06-18 16:14:00,
2013-06-18 12:15:00,64.3,62.8,29.99,NE,44,0.0,0.0,95,0.00,,,0.00,Wunderground v.1.15,2013-06-18 16:15:00,
2013-06-18 12:16:00,79.3,67.4,29.96,NNE,24,0.0,2.0,67,0.00,,,0.02,Wunderground v.1.15,2013-06-18 16:16:00,
2013-06-18 12:17:00,79.4,66.2,29.96,NNE,13,0.0,3.0,64,0.00,,,0.02,Wunderground v.1.15,2013-06-18 16:17:00,
2013-06-18 12:18:00,64.3,62.8,29.99,NE,44,0.0,0.0,95,0.00,,,0.00,Wunderground v.1.15,2013-06-18 16:18:00,
2013-06-18 12:19:00,79.6,68.5,29.95,NNE,18,0.0,3.0,69,0.00,,,0.02,Wunderground v.1.15,2013-06-18 16:19:00,
2013-06-18 12:20:00,64.4,62.9,29.99,NE,44,0.0,0.0,95,0.00,,,0.00,Wunderground v.1.15,2013-06-18 16:20:00,
2013-06-18 12:21:00,79.8,67.4,29.96,NNE,18,0.0,1.0,66,0.00,,,0.02,Wunderground v.1.15,2013-06-18 16:21:00,
2013-06-18 12:22:00,64.4,62.9,29.98,NE,44,0.0,0.0,95,0.00,,,0.00,Wunderground v.1.15,2013-06-18 16:22:00,
2013-06-18 12:23:00,79.9,67.5,29.95,NNE,18,1.0,1.0,66,0.00,,,0.02,Wunderground v.1.15,2013-06-18 16:23:00,
2013-06-18 12:24:00,64.3,62.8,29.99,NE,44,0.0,0.0,95,0.00,,,0.00,Wunderground v.1.15,2013-06-18 16:24:00,
2013-06-18 12:25:00,79.8,68.3,29.95,West,267,1.0,4.0,68,0.00,,,0.02,Wunderground v.1.15,2013-06-18 16:25:00,
2013-06-18 12:26:00,64.3,62.8,29.98,NE,44,0.0,0.0,95,0.00,,,0.00,Wunderground v.1.15,2013-06-18 16:26:00,
2013-06-18 12:27:00,79.6,67.7,29.95,WSW,250,1.0,4.0,67,0.00,,,0.02,Wunderground v.1.15,2013-06-18 16:27:00,
2013-06-18 12:28:00,79.3,67.0,29.95,WSW,250,1.0,4.0,66,0.00,,,0.02,Wunderground v.1.15,2013-06-18 16:28:00,
2013-06-18 12:29:00,64.2,62.7,29.99,NE,44,0.0,0.0,95,0.00,,,0.00,Wunderground v.1.15,2013-06-18 16:29:00,
2013-06-18 12:30:00,79.3,67.4,29.95,NNE,22,1.0,4.0,67,0.00,,,0.02,Wunderground v.1.15,2013-06-18 16:30:00,
2013-06-18 12:31:00,64.2,62.7,29.99,NE,44,0.0,0.0,95,0.00,,,0.00,Wunderground v.1.15,2013-06-18 16:31:00,
2013-06-18 12:32:00,64.2,62.7,29.99,NE,44,0.0,0.0,95,0.00,,,0.00,Wunderground v.1.15,2013-06-18 16:32:00,
2013-06-18 12:33:00,79.2,68.1,29.95,North,355,1.0,2.0,69,0.00,,,0.02,Wunderground v.1.15,2013-06-18 16:33:00,
2013-06-18 12:34:00,64.1,62.6,29.99,NE,44,0.0,0.0,95,0.00,,,0.00,Wunderground v.1.15,2013-06-18 16:34:00,
2013-06-18 12:35:00,79.2,67.7,29.95,NNE,32,1.0,2.0,68,0.00,,,0.02,Wunderground v.1.15,2013-06-18 16:35:00,
2013-06-18 12:36:00,79.3,67.8,29.95,NNE,32,1.0,2.0,68,0.00,,,0.02,Wunderground v.1.15,2013-06-18 16:36:00,
2013-06-18 12:37:00,64.0,62.5,29.99,NE,44,0.0,0.0,95,0.00,,,0.00,Wunderground v.1.15,2013-06-18 16:37:00,
2013-06-18 12:38:00,64.0,62.5,29.99,NE,44,0.0,0.0,95,0.00,,,0.00,Wunderground v.1.15,2013-06-18 16:38:00,
2013-06-18 12:39:00,64.0,62.5,29.99,NE,44,0.0,0.0,95,0.00,,,0.00,Wunderground v.1.15,2013-06-18 16:39:00,
2013-06-18 12:40:00,79.5,68.4,29.95,West,281,1.0,1.0,69,0.00,,,0.02,Wunderground v.1.15,2013-06-18 16:40:00,
2013-06-18 12:41:00,64.0,62.5,29.99,NE,44,0.0,0.0,95,0.00,,,0.00,Wunderground v.1.15,2013-06-18 16:41:00,
2013-06-18 12:42:00,79.5,68.4,29.95,West,281,1.0,1.0,69,0.00,,,0.02,Wunderground v.1.15,2013-06-18 16:42:00,
2013-06-18 12:43:00,79.7,68.6,29.95,West,281,1.0,1.0,69,0.00,,,0.02,Wunderground v.1.15,2013-06-18 16:43:00,
2013-06-18 12:44:00,64.0,62.5,29.99,NE,44,0.0,0.0,95,0.00,,,0.00,Wunderground v.1.15,2013-06-18 16:44:00,
2013-06-18 12:45:00,63.9,62.4,29.99,NE,44,0.0,0.0,95,0.00,,,0.00,Wunderground v.1.15,2013-06-18 16:45:00,
2013-06-18 12:46:00,79.9,67.5,29.95,WNW,290,0.0,2.0,66,0.00,,,0.02,Wunderground v.1.15,2013-06-18 16:46:00,
2013-06-18 12:47:00,63.9,62.4,29.99,NE,44,0.0,0.0,95,0.00,,,0.00,Wunderground v.1.15,2013-06-18 16:47:00,
2013-06-18 12:48:00,63.9,62.4,29.99,NE,44,0.0,0.0,95,0.00,,,0.00,Wunderground v.1.15,2013-06-18 16:48:00,
2013-06-18 12:49:00,79.9,68.8,29.95,SSW,200,0.0,2.0,69,0.00,,,0.02,Wunderground v.1.15,2013-06-18 16:49:00,
2013-06-18 12:50:00,80.1,69.0,29.95,East,81,0.0,2.0,69,0.00,,,0.02,Wunderground v.1.15,2013-06-18 16:50:00,
2013-06-18 12:51:00,63.9,62.4,29.99,NE,44,0.0,0.0,95,0.00,,,0.00,Wunderground v.1.15,2013-06-18 16:51:00,
2013-06-18 12:52:00,80.4,68.4,29.95,NNE,17,1.0,1.0,67,0.00,,,0.02,Wunderground v.1.15,2013-06-18 16:52:00,
2013-06-18 12:53:00,80.4,67.1,29.95,NNE,15,1.0,1.0,64,0.00,,,0.02,Wunderground v.1.15,2013-06-18 16:53:00,
2013-06-18 12:54:00,63.9,62.4,30.00,NE,44,0.0,0.0,95,0.00,,,0.00,Wunderground v.1.15,2013-06-18 16:54:00,
2013-06-18 12:55:00,80.4,67.1,29.95,NNE,15,1.0,1.0,64,0.00,,,0.02,Wunderground v.1.15,2013-06-18 16:55:00,
2013-06-18 12:56:00,63.9,62.4,30.00,NE,44,0.0,0.0,95,0.00,,,0.00,Wunderground v.1.15,2013-06-18 16:56:00,
2013-06-18 12:57:00,63.9,62.4,30.00,NE,44,0.0,0.0,95,0.00,,,0.00,Wunderground v.1.15,2013-06-18 16:57:00,
2013-06-18 12:58:00,80.3,67.9,29.95,South,169,1.0,1.0,66,0.00,,,0.02,Wunderground v.1.15,2013-06-18 16:58:00,
2013-06-18 12:59:00,80.2,67.8,29.96,South,169,1.0,1.0,66,0.00,,,0.02,Wunderground v.1.15,2013-06-18 16:59:00,
2013-06-18 13:00:00,64.0,62.5,30.00,NE,44,0.0,0.0,95,0.00,,,0.00,Wunderground v.1.15,2013-06-18 17:00:00,
2013-06-18 13:01:00,80.3,67.5,29.95,NNE,20,1.0,2.0,65,0.00,,,0.02,Wunderground v.1.15,2013-06-18 17:01:00,
2013-06-18 13:02:00,80.3,67.5,29.95,North,5,0.0,2.0,65,0.00,,,0.02,Wunderground v.1.15,2013-06-18 17:02:00,
2013-06-18 13:03:00,64.1,62.6,30.00,NE,44,0.0,0.0,95,0.00,,,0.00,Wunderground v.1.15,2013-06-18 17:03:00,
2013-06-18 13:04:00,64.1,62.6,30.00,NE,44,0.0,0.0,95,0.00,,,0.00,Wunderground v.1.15,2013-06-18 17:04:00,
2013-06-18 13:05:00,64.1,62.6,30.00,NE,44,0.0,0.0,95,0.00,,,0.00,Wunderground v.1.15,2013-06-18 17:05:00,
2013-06-18 13:06:00,80.4,68.0,29.95,East,98,1.0,2.0,66,0.00,,,0.02,Wunderground v.1.15,2013-06-18 17:06:00,
2013-06-18 13:07:00,80.5,68.1,29.95,East,98,1.0,2.0,66,0.00,,,0.02,Wunderground v.1.15,2013-06-18 17:07:00,
2013-06-18 13:08:00,80.5,68.1,29.95,East,98,1.0,2.0,66,0.00,,,0.02,Wunderground v.1.15,2013-06-18 17:08:00,
2013-06-18 13:09:00,80.6,67.3,29.95,East,98,1.0,2.0,64,0.00,,,0.02,Wunderground v.1.15,2013-06-18 17:09:00,
2013-06-18 13:10:00,64.2,63.0,30.00,NE,44,0.0,0.0,96,0.00,,,0.00,Wunderground v.1.15,2013-06-18 17:10:00,
2013-06-18 13:11:00,64.3,63.1,30.00,NE,44,0.0,0.0,96,0.00,,,0.00,Wunderground v.1.15,2013-06-18 17:11:00,
2013-06-18 13:12:00,64.3,63.1,30.00,NE,44,0.0,0.0,96,0.00,,,0.00,Wunderground v.1.15,2013-06-18 17:12:00,
2013-06-18 13:13:00,80.6,67.3,29.95,North,355,0.0,2.0,64,0.00,,,0.02,Wunderground v.1.15,2013-06-18 17:13:00,
2013-06-18 13:14:00,64.3,63.1,30.00,NE,44,0.0,0.0,96,0.00,,,0.00,Wunderground v.1.15,2013-06-18 17:14:00,
2013-06-18 13:15:00,80.7,68.3,29.95,NNE,32,0.0,2.0,66,0.00,,,0.02,Wunderground v.1.15,2013-06-18 17:15:00,
2013-06-18 13:16:00,80.8,68.4,29.95,NE,38,0.0,2.0,66,0.00,,,0.02,Wunderground v.1.15,2013-06-18 17:16:00,
2013-06-18 13:17:00,80.7,68.7,29.95,WSW,242,0.0,2.0,67,0.00,,,0.02,Wunderground v.1.15,2013-06-18 17:17:00,
2013-06-18 13:18:00,80.5,68.1,29.95,WSW,257,0.0,2.0,66,0.00,,,0.02,Wunderground v.1.15,2013-06-18 17:18:00,
2013-06-18 13:19:00,64.3,63.1,29.99,NE,44,0.0,0.0,96,0.00,,,0.00,Wunderground v.1.15,2013-06-18 17:19:00,
2013-06-18 13:20:00,80.2,67.8,29.95,West,261,0.0,2.0,66,0.00,,,0.02,Wunderground v.1.15,2013-06-18 17:20:00,
2013-06-18 13:21:00,64.3,63.1,30.00,NE,44,0.0,0.0,96,0.00,,,0.00,Wunderground v.1.15,2013-06-18 17:21:00,
2013-06-18 13:22:00,64.3,63.1,30.00,NE,44,0.0,0.0,96,0.00,,,0.00,Wunderground v.1.15,2013-06-18 17:22:00,
2013-06-18 13:23:00,79.6,67.7,29.95,West,261,0.0,0.0,67,0.00,,,0.02,Wunderground v.1.15,2013-06-18 17:23:00,
2013-06-18 13:24:00,64.4,63.2,30.00,NE,44,0.0,0.0,96,0.00,,,0.00,Wunderground v.1.15,2013-06-18 17:24:00,
2013-06-18 13:25:00,64.4,63.2,30.00,NE,44,0.0,0.0,96,0.00,,,0.00,Wunderground v.1.15,2013-06-18 17:25:00,
2013-06-18 13:26:00,79.2,68.1,29.95,WSW,258,1.0,1.0,69,0.00,,,0.02,Wunderground v.1.15,2013-06-18 17:26:00,
2013-06-18 13:27:00,64.5,63.3,30.00,NE,44,0.0,0.0,96,0.00,,,0.00,Wunderground v.1.15,2013-06-18 17:27:00,
2013-06-18 13:28:00,79.3,67.8,29.95,West,277,0.0,1.0,68,0.00,,,0.02,Wunderground v.1.15,2013-06-18 17:28:00,
2013-06-18 13:29:00,79.3,68.2,29.95,West,277,0.0,1.0,69,0.00,,,0.02,Wunderground v.1.15,2013-06-18 17:29:00,
2013-06-18 13:30:00,64.5,63.3,30.00,NE,44,0.0,0.0,96,0.00,,,0.00,Wunderground v.1.15,2013-06-18 17:30:00,
2013-06-18 13:31:00,79.1,66.8,29.95,SSW,195,0.0,0.0,66,0.00,,,0.02,Wunderground v.1.15,2013-06-18 17:31:00,
2013-06-18 13:32:00,64.5,63.3,30.00,NE,44,0.0,0.0,96,0.00,,,0.00,Wunderground v.1.15,2013-06-18 17:32:00,
2013-06-18 13:33:00,79.1,67.6,29.95,SSW,195,0.0,0.0,68,0.00,,,0.02,Wunderground v.1.15,2013-06-18 17:33:00,
2013-06-18 13:34:00,64.5,63.3,30.00,NE,44,0.0,0.0,96,0.00,,,0.00,Wunderground v.1.15,2013-06-18 17:34:00,
2013-06-18 13:35:00,79.4,68.3,29.95,ESE,102,0.0,1.0,69,0.00,,,0.02,Wunderground v.1.15,2013-06-18 17:35:00,
2013-06-18 13:36:00,64.5,63.3,30.00,NE,44,0.0,0.0,96,0.00,,,0.00,Wunderground v.1.15,2013-06-18 17:36:00,
2013-06-18 13:37:00,64.5,63.3,30.00,NE,44,0.0,0.0,96,0.00,,,0.00,Wunderground v.1.15,2013-06-18 17:37:00,
2013-06-18 13:38:00,79.7,68.6,29.95,North,5,0.0,1.0,69,0.00,,,0.02,Wunderground v.1.15,2013-06-18 17:38:00,
2013-06-18 13:39:00,64.5,63.3,30.00,NE,44,0.0,0.0,96,0.00,,,0.00,Wunderground v.1.15,2013-06-18 17:39:00,
2013-06-18 13:40:00,64.5,63.3,30.00,NE,44,0.0,0.0,96,0.00,,,0.00,Wunderground v.1.15,2013-06-18 17:40:00,
2013-06-18 13:41:00,80.4,67.6,29.95,North,5,0.0,0.0,65,0.00,,,0.02,Wunderground v.1.15,2013-06-18 17:41:00,
2013-06-18 13:43:00,80.8,67.9,29.95,NE,42,0.0,0.0,65,0.00,,,0.02,Wunderground v.1.15,2013-06-18 17:43:00,
2013-06-18 13:44:00,64.5,63.3,30.00,NE,44,0.0,0.0,96,0.00,,,0.00,Wunderground v.1.15,2013-06-18 17:44:00,
2013-06-18 13:45:00,81.3,68.0,29.95,NE,42,0.0,0.0,64,0.00,,,0.02,Wunderground v.1.15,2013-06-18 17:45:00,
2013-06-18 13:47:00,81.3,67.5,29.95,NE,42,0.0,0.0,63,0.00,,,0.02,Wunderground v.1.15,2013-06-18 17:47:00,
2013-06-18 13:48:00,64.4,63.2,30.00,NE,44,0.0,0.0,96,0.00,,,0.01,Wunderground v.1.15,2013-06-18 17:48:00,
2013-06-18 13:49:00,81.8,68.4,29.95,ENE,73,0.0,0.0,64,0.00,,,0.02,Wunderground v.1.15,2013-06-18 17:49:00,
2013-06-18 13:50:00,64.4,63.2,30.00,NE,44,0.0,0.0,96,0.00,,,0.01,Wunderground v.1.15,2013-06-18 17:50:00,
2013-06-18 13:52:00,81.9,69.4,29.95,ENE,73,0.0,0.0,66,0.00,,,0.02,Wunderground v.1.15,2013-06-18 17:52:00,
2013-06-18 13:54:00,81.9,69.4,29.95,ENE,73,0.0,0.0,66,0.00,,,0.02,Wunderground v.1.15,2013-06-18 17:54:00,
2013-06-18 13:56:00,81.9,68.1,29.94,SSE,162,0.0,1.0,63,0.00,,,0.02,Wunderground v.1.15,2013-06-18 17:56:00,
2013-06-18 13:57:00,64.3,63.1,30.00,NE,44,0.0,0.0,96,0.00,,,0.01,Wunderground v.1.15,2013-06-18 17:57:00,
2013-06-18 13:59:00,82.0,69.1,29.94,West,274,0.0,1.0,65,0.00,,,0.02,Wunderground v.1.15,2013-06-18 17:59:00,
2013-06-18 14:02:00,64.2,63.0,30.00,NE,44,0.0,0.0,96,0.00,,,0.01,Wunderground v.1.15,2013-06-18 18:02:00,
2013-06-18 14:03:00,82.1,69.2,29.94,North,355,0.0,2.0,65,0.00,,,0.02,Wunderground v.1.15,2013-06-18 18:03:00,
2013-06-18 14:04:00,82.1,68.3,29.94,North,355,1.0,2.0,63,0.00,,,0.02,Wunderground v.1.15,2013-06-18 18:04:00,
2013-06-18 14:05:00,82.1,68.3,29.94,North,355,1.0,2.0,63,0.00,,,0.02,Wunderground v.1.15,2013-06-18 18:05:00,
2013-06-18 14:06:00,82.1,68.7,29.94,North,355,0.0,2.0,64,0.00,,,0.02,Wunderground v.1.15,2013-06-18 18:06:00,
2013-06-18 14:08:00,82.0,69.1,29.94,SSW,205,0.0,3.0,65,0.00,,,0.02,Wunderground v.1.15,2013-06-18 18:08:00,
2013-06-18 14:11:00,82.0,67.2,29.94,SW,221,1.0,1.0,61,0.00,,,0.02,Wunderground v.1.15,2013-06-18 18:11:00,
2013-06-18 14:13:00,82.1,67.8,29.94,SW,221,1.0,1.0,62,0.00,,,0.02,Wunderground v.1.15,2013-06-18 18:13:00,
2013-06-18 14:14:00,82.1,68.3,29.94,SW,219,1.0,2.0,63,0.00,,,0.02,Wunderground v.1.15,2013-06-18 18:14:00,
2013-06-18 14:15:00,63.9,62.7,30.01,NE,44,0.0,0.0,96,0.00,,,0.01,Wunderground v.1.15,2013-06-18 18:15:00,
2013-06-18 14:16:00,82.1,69.6,29.94,SW,220,1.0,2.0,66,0.00,,,0.02,Wunderground v.1.15,2013-06-18 18:16:00,
2013-06-18 14:18:00,82.2,67.9,29.94,NNW,329,1.0,2.0,62,0.00,,,0.02,Wunderground v.1.15,2013-06-18 18:18:00,
2013-06-18 14:21:00,82.6,69.6,29.94,North,350,1.0,1.0,65,0.00,,,0.02,Wunderground v.1.15,2013-06-18 18:21:00,
2013-06-18 14:24:00,82.3,68.9,29.95,North,355,1.0,1.0,64,0.00,,,0.02,Wunderground v.1.15,2013-06-18 18:24:00,
2013-06-18 14:25:00,82.3,68.9,29.94,NNW,345,0.0,1.0,64,0.00,,,0.02,Wunderground v.1.15,2013-06-18 18:25:00,
2013-06-18 14:26:00,82.3,68.9,29.94,South,190,0.0,3.0,64,0.00,,,0.02,Wunderground v.1.15,2013-06-18 18:26:00,
2013-06-18 14:28:00,82.3,70.2,29.94,WSW,249,0.0,3.0,67,0.00,,,0.02,Wunderground v.1.15,2013-06-18 18:28:00,
2013-06-18 14:29:00,82.3,70.2,29.94,SW,226,0.0,3.0,67,0.00,,,0.02,Wunderground v.1.15,2013-06-18 18:29:00,
2013-06-18 14:32:00,82.1,68.7,29.94,SW,226,0.0,0.0,64,0.00,,,0.02,Wunderground v.1.15,2013-06-18 18:32:00,
2013-06-18 14:33:00,81.9,67.1,29.94,SSW,204,0.0,1.0,61,0.00,,,0.02,Wunderground v.1.15,2013-06-18 18:33:00,
2013-06-18 14:35:00,81.8,68.0,29.94,SSW,204,0.0,1.0,63,0.00,,,0.02,Wunderground v.1.15,2013-06-18 18:35:00,
2013-06-18 14:37:00,81.7,67.9,29.94,SW,217,0.0,1.0,63,0.00,,,0.02,Wunderground v.1.15,2013-06-18 18:37:00,
2013-06-18 14:40:00,81.9,69.4,29.94,WNW,302,0.0,2.0,66,0.00,,,0.02,Wunderground v.1.15,2013-06-18 18:40:00,
2013-06-18 14:41:00,81.9,68.5,29.94,NNE,15,0.0,1.0,64,0.00,,,0.02,Wunderground v.1.15,2013-06-18 18:41:00,
2013-06-18 14:46:00,82.3,68.9,29.94,NNE,13,0.0,1.0,64,0.00,,,0.02,Wunderground v.1.15,2013-06-18 18:46:00,
2013-06-18 14:47:00,82.6,68.7,29.94,NNE,13,0.0,1.0,63,0.00,,,0.02,Wunderground v.1.15,2013-06-18 18:47:00,
2013-06-18 14:49:00,83.0,69.6,29.94,NNE,13,0.0,1.0,64,0.00,,,0.02,Wunderground v.1.15,2013-06-18 18:49:00,
2013-06-18 14:51:00,83.3,69.8,29.94,NNE,13,0.0,0.0,64,0.00,,,0.02,Wunderground v.1.15,2013-06-18 18:51:00,
2013-06-18 14:52:00,83.5,70.5,29.94,NNE,13,0.0,0.0,65,0.00,,,0.02,Wunderground v.1.15,2013-06-18 18:52:00,
2013-06-18 14:53:00,83.5,70.5,29.94,NNE,13,0.0,1.0,65,0.00,,,0.02,Wunderground v.1.15,2013-06-18 18:53:00,
2013-06-18 14:56:00,83.1,68.3,29.94,NNE,17,0.0,2.0,61,0.00,,,0.02,Wunderground v.1.15,2013-06-18 18:56:00,
2013-06-18 14:59:00,83.1,68.3,29.94,NNE,25,0.0,2.0,61,0.00,,,0.02,Wunderground v.1.15,2013-06-18 18:59:00,
2013-06-18 15:01:00,83.1,68.7,29.94,NE,55,0.0,1.0,62,0.00,,,0.02,Wunderground v.1.15,2013-06-18 19:01:00,
2013-06-18 15:02:00,83.1,68.7,29.94,NNE,25,1.0,1.0,62,0.00,,,0.02,Wunderground v.1.15,2013-06-18 19:02:00,
2013-06-18 15:06:00,83.2,70.2,29.94,NNE,22,1.0,1.0,65,0.00,,,0.02,Wunderground v.1.15,2013-06-18 19:06:00,
2013-06-18 15:07:00,83.2,71.1,29.94,SE,139,0.0,1.0,67,0.00,,,0.02,Wunderground v.1.15,2013-06-18 19:07:00,
2013-06-18 15:10:00,83.4,70.4,29.94,NNW,334,0.0,1.0,65,0.00,,,0.02,Wunderground v.1.15,2013-06-18 19:10:00,
2013-06-18 15:12:00,83.2,68.8,29.94,NNW,334,0.0,1.0,62,0.00,,,0.02,Wunderground v.1.15,2013-06-18 19:12:00,
2013-06-18 15:14:00,83.1,68.7,29.94,NNW,334,0.0,1.0,62,0.00,,,0.02,Wunderground v.1.15,2013-06-18 19:14:00,
2013-06-18 15:15:00,83.1,68.7,29.94,NNW,334,0.0,1.0,62,0.00,,,0.02,Wunderground v.1.15,2013-06-18 19:15:00,
2013-06-18 15:18:00,83.2,68.8,29.94,SW,216,0.0,1.0,62,0.00,,,0.02,Wunderground v.1.15,2013-06-18 19:18:00,
2013-06-18 15:19:00,83.3,68.9,29.94,SW,216,0.0,1.0,62,0.00,,,0.02,Wunderground v.1.15,2013-06-18 19:19:00,
2013-06-18 15:20:00,83.4,69.0,29.94,SW,223,0.0,1.0,62,0.00,,,0.02,Wunderground v.1.15,2013-06-18 19:20:00,
2013-06-18 15:25:00,83.1,68.3,29.94,WNW,290,1.0,3.0,61,0.00,,,0.02,Wunderground v.1.15,2013-06-18 19:25:00,
2013-06-18 15:26:00,83.1,69.2,29.94,NNE,25,1.0,3.0,63,0.00,,,0.02,Wunderground v.1.15,2013-06-18 19:26:00,
2013-06-18 15:27:00,83.1,68.7,29.94,NNE,25,1.0,3.0,62,0.00,,,0.02,Wunderground v.1.15,2013-06-18 19:27:00,
2013-06-18 15:29:00,83.3,68.0,29.94,NNE,25,0.0,3.0,60,0.00,,,0.02,Wunderground v.1.15,2013-06-18 19:29:00,
2013-06-18 15:33:00,83.6,69.2,29.94,NNE,29,1.0,1.0,62,0.00,,,0.02,Wunderground v.1.15,2013-06-18 19:33:00,
2013-06-18 15:36:00,83.7,70.2,29.94,East,88,0.0,1.0,64,0.00,,,0.02,Wunderground v.1.15,2013-06-18 19:36:00,
2013-06-18 15:41:00,83.6,67.8,29.94,WSW,248,0.0,0.0,59,0.00,,,0.02,Wunderground v.1.15,2013-06-18 19:41:00,
2013-06-18 15:44:00,83.5,68.2,29.94,NE,36,0.0,1.0,60,0.00,,,0.02,Wunderground v.1.15,2013-06-18 19:44:00,
2013-06-18 15:48:00,83.9,69.0,29.93,SE,130,0.0,2.0,61,0.00,,,0.02,Wunderground v.1.15,2013-06-18 19:48:00,
2013-06-18 15:49:00,84.0,68.6,29.93,NW,318,0.0,2.0,60,0.00,,,0.02,Wunderground v.1.15,2013-06-18 19:49:00,
2013-06-18 15:50:00,84.1,69.2,29.93,NW,318,0.0,0.0,61,0.00,,,0.02,Wunderground v.1.15,2013-06-18 19:50:00,
2013-06-18 15:51:00,84.1,69.2,29.93,NW,318,0.0,0.0,61,0.00,,,0.02,Wunderground v.1.15,2013-06-18 19:51:00,
2013-06-18 15:54:00,84.2,68.8,29.93,SW,225,0.0,1.0,60,0.00,,,0.02,Wunderground v.1.15,2013-06-18 19:54:00,
2013-06-18 15:58:00,84.5,69.6,29.93,ENE,58,0.0,1.0,61,0.00,,,0.02,Wunderground v.1.15,2013-06-18 19:58:00,
2013-06-18 16:02:00,84.9,68.5,29.93,North,360,0.0,0.0,58,0.00,,,0.02,Wunderground v.1.15,2013-06-18 20:02:00,
2013-06-18 16:03:00,85.1,70.6,29.93,East,84,0.0,1.0,62,0.00,,,0.02,Wunderground v.1.15,2013-06-18 20:03:00,
2013-06-18 16:07:00,84.6,67.7,29.93,SSW,209,0.0,1.0,57,0.00,,,0.02,Wunderground v.1.15,2013-06-18 20:07:00,
2013-06-18 16:09:00,84.5,68.1,29.93,North,11,0.0,2.0,58,0.00,,,0.02,Wunderground v.1.15,2013-06-18 20:09:00,
2013-06-18 16:11:00,84.4,68.0,29.93,NNE,20,0.0,2.0,58,0.00,,,0.02,Wunderground v.1.15,2013-06-18 20:11:00,
2013-06-18 16:17:00,84.7,68.8,29.93,West,260,0.0,2.0,59,0.00,,,0.02,Wunderground v.1.15,2013-06-18 20:17:00,
2013-06-18 16:20:00,84.8,67.9,29.93,NNE,23,0.0,2.0,57,0.00,,,0.02,Wunderground v.1.15,2013-06-18 20:20:00,
2013-06-18 16:22:00,84.7,69.3,29.93,WNW,283,0.0,1.0,60,0.00,,,0.02,Wunderground v.1.15,2013-06-18 20:22:00,
2013-06-18 16:24:00,84.7,68.8,29.93,East,94,1.0,1.0,59,0.00,,,0.02,Wunderground v.1.15,2013-06-18 20:24:00,
2013-06-18 16:25:00,84.7,69.3,29.93,East,90,1.0,1.0,60,0.00,,,0.02,Wunderground v.1.15,2013-06-18 20:25:00,
2013-06-18 16:29:00,84.8,68.9,29.93,NNW,348,1.0,2.0,59,0.00,,,0.02,Wunderground v.1.15,2013-06-18 20:29:00,
2013-06-18 16:32:00,84.5,68.1,29.93,NE,54,1.0,1.0,58,0.00,,,0.02,Wunderground v.1.15,2013-06-18 20:32:00,
2013-06-18 16:35:00,84.4,67.5,29.93,NE,53,0.0,1.0,57,0.00,,,0.02,Wunderground v.1.15,2013-06-18 20:35:00,
2013-06-18 16:36:00,84.4,68.0,29.93,WNW,297,0.0,1.0,58,0.00,,,0.02,Wunderground v.1.15,2013-06-18 20:36:00,
2013-06-18 16:41:00,84.3,67.9,29.93,NNE,28,0.0,0.0,58,0.00,,,0.02,Wunderground v.1.15,2013-06-18 20:41:00,
2013-06-18 16:43:00,84.4,67.5,29.93,NE,49,1.0,1.0,57,0.00,,,0.02,Wunderground v.1.15,2013-06-18 20:43:00,
2013-06-18 16:45:00,84.4,68.0,29.92,NE,34,1.0,1.0,58,0.00,,,0.02,Wunderground v.1.15,2013-06-18 20:45:00,
2013-06-18 16:47:00,84.5,68.1,29.92,NNE,29,1.0,1.0,58,0.00,,,0.02,Wunderground v.1.15,2013-06-18 20:47:00,
2013-06-18 16:50:00,84.6,67.2,29.92,NNE,29,0.0,1.0,56,0.00,,,0.02,Wunderground v.1.15,2013-06-18 20:50:00,
2013-06-18 16:51:00,84.7,67.8,29.92,SW,229,0.0,1.0,57,0.00,,,0.02,Wunderground v.1.15,2013-06-18 20:51:00,
2013-06-18 16:54:00,84.8,67.4,29.92,NNW,348,0.0,1.0,56,0.00,,,0.02,Wunderground v.1.15,2013-06-18 20:54:00,
2013-06-18 16:56:00,84.8,67.4,29.92,WSW,242,0.0,1.0,56,0.00,,,0.02,Wunderground v.1.15,2013-06-18 20:56:00,
2013-06-18 16:59:00,84.8,67.9,29.91,SW,227,0.0,1.0,57,0.00,,,0.02,Wunderground v.1.15,2013-06-18 20:59:00,
2013-06-18 17:02:00,84.7,66.7,29.91,West,269,0.0,1.0,55,0.00,,,0.02,Wunderground v.1.15,2013-06-18 21:02:00,
2013-06-18 17:04:00,84.5,66.6,29.91,West,267,0.0,1.0,55,0.00,,,0.02,Wunderground v.1.15,2013-06-18 21:04:00,
2013-06-18 17:06:00,84.5,67.1,29.91,West,267,0.0,1.0,56,0.00,,,0.02,Wunderground v.1.15,2013-06-18 21:06:00,
2013-06-18 17:08:00,84.5,67.6,29.91,West,267,0.0,1.0,57,0.00,,,0.02,Wunderground v.1.15,2013-06-18 21:08:00,
2013-06-18 17:09:00,84.5,66.6,29.91,West,267,0.0,1.0,55,0.00,,,0.02,Wunderground v.1.15,2013-06-18 21:09:00,
2013-06-18 17:11:00,84.6,66.7,29.91,North,5,0.0,0.0,55,0.00,,,0.02,Wunderground v.1.15,2013-06-18 21:11:00,
2013-06-18 17:12:00,84.7,67.3,29.91,North,5,0.0,0.0,56,0.00,,,0.02,Wunderground v.1.15,2013-06-18 21:12:00,
2013-06-18 17:13:00,84.7,67.8,29.91,North,5,0.0,0.0,57,0.00,,,0.02,Wunderground v.1.15,2013-06-18 21:13:00,
2013-06-18 17:14:00,84.7,67.8,29.91,North,5,0.0,0.0,57,0.00,,,0.02,Wunderground v.1.15,2013-06-18 21:14:00,
2013-06-18 17:18:00,84.7,67.3,29.91,East,90,0.0,0.0,56,0.00,,,0.02,Wunderground v.1.15,2013-06-18 21:18:00,
2013-06-18 17:20:00,84.6,67.7,29.91,East,90,0.0,0.0,57,0.00,,,0.02,Wunderground v.1.15,2013-06-18 21:20:00,
2013-06-18 17:22:00,84.6,68.7,29.91,East,90,0.0,0.0,59,0.00,,,0.02,Wunderground v.1.15,2013-06-18 21:22:00,
2013-06-18 17:23:00,84.5,69.1,29.91,East,90,0.0,0.0,60,0.00,,,0.02,Wunderground v.1.15,2013-06-18 21:23:00,
2013-06-18 17:24:00,84.4,67.5,29.90,East,92,0.0,0.0,57,0.00,,,0.02,Wunderground v.1.15,2013-06-18 21:24:00,
2013-06-18 17:29:00,84.5,67.6,29.90,East,92,0.0,0.0,57,0.00,,,0.02,Wunderground v.1.15,2013-06-18 21:29:00,
2013-06-18 17:31:00,84.6,68.7,29.90,East,92,0.0,0.0,59,0.00,,,0.02,Wunderground v.1.15,2013-06-18 21:31:00,
2013-06-18 17:34:00,84.8,68.4,29.90,East,92,0.0,0.0,58,0.00,,,0.02,Wunderground v.1.15,2013-06-18 21:34:00,
2013-06-18 17:36:00,85.0,69.6,29.90,East,92,0.0,1.0,60,0.00,,,0.02,Wunderground v.1.15,2013-06-18 21:36:00,
2013-06-18 17:38:00,85.0,68.6,29.90,East,92,0.0,1.0,58,0.00,,,0.02,Wunderground v.1.15,2013-06-18 21:38:00,
2013-06-18 17:39:00,85.0,68.6,29.90,East,92,0.0,1.0,58,0.00,,,0.02,Wunderground v.1.15,2013-06-18 21:39:00,
2013-06-18 17:40:00,84.9,68.0,29.89,East,92,0.0,1.0,57,0.00,,,0.02,Wunderground v.1.15,2013-06-18 21:40:00,
2013-06-18 17:41:00,84.8,67.4,29.89,East,92,0.0,0.0,56,0.00,,,0.02,Wunderground v.1.15,2013-06-18 21:41:00,
2013-06-18 17:46:00,84.2,68.3,29.89,East,92,0.0,0.0,59,0.00,,,0.02,Wunderground v.1.15,2013-06-18 21:46:00,
2013-06-18 17:47:00,84.1,68.7,29.89,East,92,0.0,0.0,60,0.00,,,0.02,Wunderground v.1.15,2013-06-18 21:47:00,
2013-06-18 17:49:00,83.9,68.0,29.89,East,92,0.0,0.0,59,0.00,,,0.02,Wunderground v.1.15,2013-06-18 21:49:00,
2013-06-18 17:50:00,83.9,68.5,29.89,East,92,0.0,0.0,60,0.00,,,0.02,Wunderground v.1.15,2013-06-18 21:50:00,
2013-06-18 17:53:00,83.8,67.4,29.88,East,92,0.0,1.0,58,0.00,,,0.02,Wunderground v.1.15,2013-06-18 21:53:00,
2013-06-18 17:55:00,83.8,68.4,29.88,East,92,0.0,1.0,60,0.00,,,0.02,Wunderground v.1.15,2013-06-18 21:55:00,
2013-06-18 17:57:00,83.8,69.4,29.88,East,92,0.0,1.0,62,0.00,,,0.02,Wunderground v.1.15,2013-06-18 21:57:00,
2013-06-18 17:59:00,83.8,67.4,29.88,East,92,0.0,1.0,58,0.00,,,0.02,Wunderground v.1.15,2013-06-18 21:59:00,
2013-06-18 18:01:00,83.8,67.9,29.88,East,92,0.0,0.0,59,0.00,,,0.02,Wunderground v.1.15,2013-06-18 22:01:00,
2013-06-18 18:05:00,83.6,67.8,29.88,East,100,0.0,0.0,59,0.00,,,0.02,Wunderground v.1.15,2013-06-18 22:05:00,
2013-06-18 18:07:00,83.5,67.2,29.88,East,100,0.0,0.0,58,0.00,,,0.02,Wunderground v.1.15,2013-06-18 22:07:00,
2013-06-18 18:09:00,83.4,69.0,29.88,East,100,0.0,0.0,62,0.00,,,0.02,Wunderground v.1.15,2013-06-18 22:09:00,
2013-06-18 18:12:00,83.2,68.3,29.88,East,100,0.0,0.0,61,0.00,,,0.02,Wunderground v.1.15,2013-06-18 22:12:00,
2013-06-18 18:15:00,83.1,69.2,29.89,East,100,0.0,0.0,63,0.00,,,0.02,Wunderground v.1.15,2013-06-18 22:15:00,
2013-06-18 18:16:00,83.1,68.7,29.89,East,101,0.0,0.0,62,0.00,,,0.02,Wunderground v.1.15,2013-06-18 22:16:00,
2013-06-18 18:20:00,83.1,69.2,29.89,East,100,0.0,0.0,63,0.00,,,0.02,Wunderground v.1.15,2013-06-18 22:20:00,
2013-06-18 18:22:00,83.0,69.6,29.89,East,100,0.0,0.0,64,0.00,,,0.02,Wunderground v.1.15,2013-06-18 22:22:00,
2013-06-18 18:24:00,82.7,69.3,29.89,East,86,0.0,1.0,64,0.00,,,0.02,Wunderground v.1.15,2013-06-18 22:24:00,
2013-06-18 18:26:00,82.7,68.4,29.89,East,86,0.0,1.0,62,0.00,,,0.02,Wunderground v.1.15,2013-06-18 22:26:00,
2013-06-18 18:30:00,82.6,67.3,29.89,SW,228,0.0,1.0,60,0.00,,,0.02,Wunderground v.1.15,2013-06-18 22:30:00,
2013-06-18 18:31:00,82.7,67.4,29.89,North,355,0.0,0.0,60,0.00,,,0.02,Wunderground v.1.15,2013-06-18 22:31:00,
2013-06-18 18:33:00,82.7,68.4,29.89,WNW,284,0.0,0.0,62,0.00,,,0.02,Wunderground v.1.15,2013-06-18 22:33:00,
2013-06-18 18:35:00,82.6,68.3,29.89,NW,320,0.0,0.0,62,0.00,,,0.02,Wunderground v.1.15,2013-06-18 22:35:00,
2013-06-18 18:37:00,82.6,67.8,29.89,NW,320,0.0,0.0,61,0.00,,,0.02,Wunderground v.1.15,2013-06-18 22:37:00,
2013-06-18 18:38:00,82.6,68.3,29.90,NW,320,0.0,0.0,62,0.00,,,0.02,Wunderground v.1.15,2013-06-18 22:38:00,
2013-06-18 18:39:00,82.5,67.7,29.89,WNW,286,0.0,1.0,61,0.00,,,0.02,Wunderground v.1.15,2013-06-18 22:39:00,
2013-06-18 18:41:00,82.5,68.2,29.90,WNW,286,0.0,0.0,62,0.00,,,0.02,Wunderground v.1.15,2013-06-18 22:41:00,
2013-06-18 18:42:00,82.4,68.5,29.90,WNW,286,0.0,0.0,63,0.00,,,0.02,Wunderground v.1.15,2013-06-18 22:42:00,
2013-06-18 18:45:00,82.3,68.4,29.90,WNW,286,0.0,0.0,63,0.00,,,0.02,Wunderground v.1.15,2013-06-18 22:45:00,
2013-06-18 18:46:00,82.3,68.0,29.90,WNW,286,0.0,0.0,62,0.00,,,0.02,Wunderground v.1.15,2013-06-18 22:46:00,
2013-06-18 18:49:00,82.2,68.3,29.90,WNW,286,0.0,0.0,63,0.00,,,0.02,Wunderground v.1.15,2013-06-18 22:49:00,
2013-06-18 18:50:00,82.1,68.7,29.90,WNW,286,0.0,0.0,64,0.00,,,0.02,Wunderground v.1.15,2013-06-18 22:50:00,
2013-06-18 18:51:00,81.9,67.6,29.90,NW,315,0.0,2.0,62,0.00,,,0.02,Wunderground v.1.15,2013-06-18 22:51:00,
2013-06-18 18:56:00,81.6,68.7,29.90,NW,315,0.0,2.0,65,0.00,,,0.02,Wunderground v.1.15,2013-06-18 22:56:00,
2013-06-18 18:57:00,81.4,68.5,29.91,NW,315,0.0,2.0,65,0.00,,,0.02,Wunderground v.1.15,2013-06-18 22:57:00,
2013-06-18 18:59:00,81.4,68.9,29.91,NW,315,0.0,2.0,66,0.00,,,0.02,Wunderground v.1.15,2013-06-18 22:59:00,
2013-06-18 19:00:00,81.2,68.8,29.91,SE,126,0.0,0.0,66,0.00,,,0.02,Wunderground v.1.15,2013-06-18 23:00:00,
2013-06-18 19:03:00,81.2,69.2,29.91,SE,126,0.0,0.0,67,0.00,,,0.02,Wunderground v.1.15,2013-06-18 23:03:00,
2013-06-18 19:04:00,81.1,69.5,29.91,SE,126,0.0,0.0,68,0.00,,,0.02,Wunderground v.1.15,2013-06-18 23:04:00,
2013-06-18 19:07:00,81.0,69.0,29.91,SE,126,0.0,0.0,67,0.00,,,0.02,Wunderground v.1.15,2013-06-18 23:07:00,
2013-06-18 19:08:00,81.0,69.0,29.91,West,261,0.0,0.0,67,0.00,,,0.02,Wunderground v.1.15,2013-06-18 23:08:00,
2013-06-18 19:10:00,80.9,69.3,29.91,WSW,253,0.0,0.0,68,0.00,,,0.02,Wunderground v.1.15,2013-06-18 23:10:00,
2013-06-18 19:11:00,80.9,69.3,29.91,NE,47,0.0,1.0,68,0.00,,,0.02,Wunderground v.1.15,2013-06-18 23:11:00,
2013-06-18 19:15:00,80.8,68.8,29.92,West,267,0.0,1.0,67,0.00,,,0.02,Wunderground v.1.15,2013-06-18 23:15:00,
2013-06-18 19:17:00,80.7,67.8,29.92,West,263,0.0,1.0,65,0.00,,,0.02,Wunderground v.1.15,2013-06-18 23:17:00,
2013-06-18 19:18:00,80.7,68.3,29.92,West,263,0.0,1.0,66,0.00,,,0.02,Wunderground v.1.15,2013-06-18 23:18:00,
2013-06-18 19:20:00,80.6,68.2,29.92,West,263,0.0,0.0,66,0.00,,,0.02,Wunderground v.1.15,2013-06-18 23:20:00,
2013-06-18 19:21:00,80.6,68.6,29.92,West,263,0.0,0.0,67,0.00,,,0.02,Wunderground v.1.15,2013-06-18 23:21:00,
2013-06-18 19:25:00,80.5,69.0,29.92,SW,228,0.0,2.0,68,0.00,,,0.02,Wunderground v.1.15,2013-06-18 23:25:00,
2013-06-18 19:26:00,80.5,68.5,29.92,SW,228,0.0,2.0,67,0.00,,,0.02,Wunderground v.1.15,2013-06-18 23:26:00,
2013-06-18 19:28:00,80.5,68.5,29.92,SW,226,0.0,2.0,67,0.00,,,0.02,Wunderground v.1.15,2013-06-18 23:28:00,
2013-06-18 19:31:00,80.4,68.9,29.92,SSW,200,0.0,0.0,68,0.00,,,0.02,Wunderground v.1.15,2013-06-18 23:31:00,
2013-06-18 19:32:00,80.3,68.8,29.92,SSW,200,0.0,0.0,68,0.00,,,0.02,Wunderground v.1.15,2013-06-18 23:32:00,
2013-06-18 19:36:00,80.2,68.2,29.92,West,278,0.0,1.0,67,0.00,,,0.02,Wunderground v.1.15,2013-06-18 23:36:00,
2013-06-18 19:37:00,80.1,68.6,29.92,West,278,0.0,1.0,68,0.00,,,0.02,Wunderground v.1.15,2013-06-18 23:37:00,
2013-06-18 19:40:00,80.1,69.0,29.92,West,278,0.0,1.0,69,0.00,,,0.02,Wunderground v.1.15,2013-06-18 23:40:00,
2013-06-18 19:41:00,80.1,69.0,29.92,West,278,0.0,0.0,69,0.00,,,0.02,Wunderground v.1.15,2013-06-18 23:41:00,
2013-06-18 19:43:00,80.1,69.0,29.92,West,278,0.0,0.0,69,0.00,,,0.02,Wunderground v.1.15,2013-06-18 23:43:00,
2013-06-18 19:47:00,80.0,68.5,29.92,WNW,284,0.0,0.0,68,0.00,,,0.02,Wunderground v.1.15,2013-06-18 23:47:00,
2013-06-18 19:48:00,80.0,68.1,29.92,WNW,284,0.0,0.0,67,0.00,,,0.02,Wunderground v.1.15,2013-06-18 23:48:00,
2013-06-18 19:50:00,79.9,68.4,29.92,WNW,284,0.0,0.0,68,0.00,,,0.02,Wunderground v.1.15,2013-06-18 23:50:00,
2013-06-18 19:52:00,79.9,68.4,29.92,WNW,284,0.0,0.0,68,0.00,,,0.02,Wunderground v.1.15,2013-06-18 23:52:00,
2013-06-18 19:54:00,79.8,68.7,29.92,WNW,284,0.0,0.0,69,0.00,,,0.02,Wunderground v.1.15,2013-06-18 23:54:00,
2013-06-18 19:56:00,79.7,68.6,29.92,WNW,284,0.0,0.0,69,0.00,,,0.02,Wunderground v.1.15,2013-06-18 23:56:00,
2013-06-18 19:57:00,79.6,68.5,29.92,WNW,284,0.0,0.0,69,0.00,,,0.02,Wunderground v.1.15,2013-06-18 23:57:00,
2013-06-18 19:58:00,79.6,68.5,29.92,WNW,284,0.0,0.0,69,0.00,,,0.02,Wunderground v.1.15,2013-06-18 23:58:00,
2013-06-18 20:02:00,79.4,68.3,29.92,WNW,284,0.0,0.0,69,0.00,,,0.02,Wunderground v.1.15,2013-06-19 00:02:00,
2013-06-18 20:03:00,79.4,68.3,29.92,WNW,284,0.0,0.0,69,0.00,,,0.02,Wunderground v.1.15,2013-06-19 00:03:00,
2013-06-18 20:07:00,78.9,68.3,29.94,NE,51,1.0,4.0,70,0.00,,,0.02,Wunderground v.1.15,2013-06-19 00:07:00,
2013-06-18 20:10:00,77.7,65.0,29.95,West,264,2.0,5.0,65,0.00,,,0.02,Wunderground v.1.15,2013-06-19 00:10:00,
2013-06-18 20:11:00,77.2,64.5,29.95,SE,132,2.0,2.0,65,0.00,,,0.03,Wunderground v.1.15,2013-06-19 00:11:00,
2013-06-18 20:12:00,76.8,65.0,29.96,North,9,2.0,4.0,67,0.45,,,0.04,Wunderground v.1.15,2013-06-19 00:12:00,
2013-06-18 20:15:00,73.1,63.9,29.97,NW,325,3.0,4.0,73,2.50,,,0.14,Wunderground v.1.15,2013-06-19 00:15:00,
2013-06-18 20:17:00,71.2,64.0,29.97,South,191,3.0,4.0,78,1.35,,,0.21,Wunderground v.1.15,2013-06-19 00:17:00,
2013-06-18 20:19:00,70.1,63.3,29.97,NE,36,2.0,4.0,79,3.22,,,0.27,Wunderground v.1.15,2013-06-19 00:19:00,
2013-06-18 20:22:00,69.0,62.9,29.96,NE,53,2.0,2.0,81,2.33,,,0.37,Wunderground v.1.15,2013-06-19 00:22:00,
2013-06-18 20:25:00,67.8,62.8,29.95,East,92,1.0,2.0,84,0.55,,,0.41,Wunderground v.1.15,2013-06-19 00:25:00,
2013-06-18 20:26:00,67.6,62.9,29.95,East,92,1.0,2.0,85,0.49,,,0.41,Wunderground v.1.15,2013-06-19 00:26:00,
2013-06-18 20:28:00,67.2,62.9,29.95,NE,54,1.0,2.0,86,0.18,,,0.41,Wunderground v.1.15,2013-06-19 00:28:00,
2013-06-18 20:32:00,66.5,62.8,29.95,NE,45,0.0,0.0,88,0.13,,,0.42,Wunderground v.1.15,2013-06-19 00:32:00,
2013-06-18 20:33:00,66.4,62.7,29.95,NE,45,0.0,0.0,88,0.13,,,0.42,Wunderground v.1.15,2013-06-19 00:33:00,
2013-06-18 20:34:00,66.3,62.6,29.95,NE,45,0.0,0.0,88,0.12,,,0.42,Wunderground v.1.15,2013-06-19 00:34:00,
2013-06-18 20:36:00,66.3,63.0,29.95,NE,44,0.0,0.0,89,0.09,,,0.42,Wunderground v.1.15,2013-06-19 00:36:00,
2013-06-18 20:38:00,66.1,63.1,29.95,NE,44,0.0,0.0,90,0.06,,,0.42,Wunderground v.1.15,2013-06-19 00:38:00,
2013-06-18 20:40:00,66.1,63.1,29.95,NE,44,0.0,0.0,90,0.06,,,0.42,Wunderground v.1.15,2013-06-19 00:40:00,
2013-06-18 20:45:00,65.9,62.9,29.95,NE,44,0.0,0.0,90,0.04,,,0.42,Wunderground v.1.15,2013-06-19 00:45:00,
2013-06-18 20:46:00,65.9,62.9,29.95,NE,44,0.0,0.0,90,0.04,,,0.42,Wunderground v.1.15,2013-06-19 00:46:00,
2013-06-18 20:51:00,65.8,63.1,29.95,NE,44,0.0,0.0,91,0.00,,,0.42,Wunderground v.1.15,2013-06-19 00:51:00,
2013-06-18 20:52:00,65.8,63.1,29.95,NE,44,0.0,0.0,91,0.00,,,0.42,Wunderground v.1.15,2013-06-19 00:52:00,
2013-06-18 20:53:00,65.7,63.0,29.95,NE,44,0.0,0.0,91,0.00,,,0.42,Wunderground v.1.15,2013-06-19 00:53:00,
2013-06-18 20:55:00,65.7,63.3,29.95,NE,44,0.0,0.0,92,0.00,,,0.42,Wunderground v.1.15,2013-06-19 00:55:00,
2013-06-18 20:56:00,65.7,63.3,29.95,NE,44,0.0,0.0,92,0.00,,,0.42,Wunderground v.1.15,2013-06-19 00:56:00,
2013-06-18 20:58:00,65.6,63.2,29.95,NE,44,0.0,0.0,92,0.00,,,0.42,Wunderground v.1.15,2013-06-19 00:58:00,
2013-06-18 20:59:00,65.6,63.2,29.95,NE,44,0.0,0.0,92,0.00,,,0.42,Wunderground v.1.15,2013-06-19 00:59:00,
2013-06-18 21:00:00,65.6,63.2,29.95,NE,44,0.0,0.0,92,0.00,,,0.42,Wunderground v.1.15,2013-06-19 01:00:00,
2013-06-18 21:03:00,65.6,63.2,29.95,NE,44,0.0,0.0,92,0.00,,,0.42,Wunderground v.1.15,2013-06-19 01:03:00,
2013-06-18 21:06:00,65.5,63.1,29.95,NE,44,0.0,0.0,92,0.00,,,0.42,Wunderground v.1.15,2013-06-19 01:06:00,
2013-06-18 21:09:00,65.5,63.1,29.95,NE,44,0.0,0.0,92,0.00,,,0.42,Wunderground v.1.15,2013-06-19 01:09:00,
2013-06-18 21:11:00,65.4,63.3,29.94,NE,44,0.0,0.0,93,0.00,,,0.42,Wunderground v.1.15,2013-06-19 01:11:00,
2013-06-18 21:13:00,65.5,63.4,29.94,NE,44,0.0,0.0,93,0.00,,,0.42,Wunderground v.1.15,2013-06-19 01:13:00,
2013-06-18 21:16:00,65.5,63.4,29.94,NE,44,0.0,0.0,93,0.00,,,0.42,Wunderground v.1.15,2013-06-19 01:16:00,
2013-06-18 21:18:00,65.5,63.4,29.94,NE,44,0.0,0.0,93,0.00,,,0.42,Wunderground v.1.15,2013-06-19 01:18:00,
2013-06-18 21:20:00,65.5,63.4,29.94,NE,44,0.0,0.0,93,0.00,,,0.42,Wunderground v.1.15,2013-06-19 01:20:00,
2013-06-18 21:21:00,65.5,63.4,29.94,NE,44,0.0,0.0,93,0.00,,,0.42,Wunderground v.1.15,2013-06-19 01:21:00,
2013-06-18 21:22:00,65.5,63.4,29.95,NE,44,0.0,0.0,93,0.00,,,0.42,Wunderground v.1.15,2013-06-19 01:22:00,
2013-06-18 21:25:00,65.5,63.4,29.95,NE,44,0.0,0.0,93,0.00,,,0.42,Wunderground v.1.15,2013-06-19 01:25:00,
2013-06-18 21:26:00,65.5,63.4,29.95,NE,44,0.0,0.0,93,0.00,,,0.42,Wunderground v.1.15,2013-06-19 01:26:00,
2013-06-18 21:27:00,65.5,63.4,29.95,NE,44,0.0,0.0,93,0.00,,,0.42,Wunderground v.1.15,2013-06-19 01:27:00,
2013-06-18 21:31:00,65.4,63.3,29.95,NE,44,0.0,0.0,93,0.00,,,0.42,Wunderground v.1.15,2013-06-19 01:31:00,
2013-06-18 21:33:00,65.4,63.6,29.96,NE,44,0.0,0.0,94,0.00,,,0.42,Wunderground v.1.15,2013-06-19 01:33:00,
2013-06-18 21:36:00,65.4,63.6,29.96,NE,44,0.0,0.0,94,0.00,,,0.42,Wunderground v.1.15,2013-06-19 01:36:00,
2013-06-18 21:38:00,65.4,63.6,29.96,NE,44,0.0,0.0,94,0.00,,,0.42,Wunderground v.1.15,2013-06-19 01:38:00,
2013-06-18 21:42:00,65.4,63.6,29.96,NE,44,0.0,0.0,94,0.00,,,0.42,Wunderground v.1.15,2013-06-19 01:42:00,
2013-06-18 21:44:00,65.5,63.7,29.96,NE,44,0.0,0.0,94,0.00,,,0.42,Wunderground v.1.15,2013-06-19 01:44:00,
2013-06-18 21:46:00,65.6,63.8,29.96,NE,44,0.0,0.0,94,0.00,,,0.42,Wunderground v.1.15,2013-06-19 01:46:00,
2013-06-18 21:47:00,65.6,63.8,29.96,NE,44,0.0,0.0,94,0.00,,,0.42,Wunderground v.1.15,2013-06-19 01:47:00,
2013-06-18 21:49:00,65.6,63.8,29.96,NE,44,0.0,0.0,94,0.00,,,0.42,Wunderground v.1.15,2013-06-19 01:49:00,
2013-06-18 21:51:00,65.6,63.8,29.96,NE,44,0.0,0.0,94,0.00,,,0.42,Wunderground v.1.15,2013-06-19 01:51:00,
2013-06-18 21:52:00,65.6,63.8,29.96,NE,44,0.0,0.0,94,0.00,,,0.42,Wunderground v.1.15,2013-06-19 01:52:00,
2013-06-18 21:55:00,65.6,63.8,29.96,NE,44,0.0,0.0,94,0.00,,,0.42,Wunderground v.1.15,2013-06-19 01:55:00,
2013-06-18 21:56:00,65.5,63.7,29.97,NE,44,0.0,0.0,94,0.00,,,0.42,Wunderground v.1.15,2013-06-19 01:56:00,
2013-06-18 21:58:00,65.5,63.7,29.97,NE,44,0.0,0.0,94,0.00,,,0.42,Wunderground v.1.15,2013-06-19 01:58:00,
2013-06-18 21:59:00,65.5,63.7,29.97,NE,44,0.0,0.0,94,0.00,,,0.42,Wunderground v.1.15,2013-06-19 01:59:00,
2013-06-18 22:01:00,65.5,63.7,29.97,NE,44,0.0,0.0,94,0.00,,,0.42,Wunderground v.1.15,2013-06-19 02:01:00,
2013-06-18 22:04:00,65.5,63.7,29.97,NE,44,0.0,0.0,94,0.00,,,0.42,Wunderground v.1.15,2013-06-19 02:04:00,
2013-06-18 22:06:00,65.5,63.7,29.97,NE,44,0.0,0.0,94,0.00,,,0.42,Wunderground v.1.15,2013-06-19 02:06:00,
2013-06-18 22:07:00,65.5,63.7,29.97,NE,44,0.0,0.0,94,0.00,,,0.42,Wunderground v.1.15,2013-06-19 02:07:00,
2013-06-18 22:09:00,65.5,63.7,29.97,NE,44,0.0,0.0,94,0.00,,,0.42,Wunderground v.1.15,2013-06-19 02:09:00,
2013-06-18 22:12:00,65.5,64.0,29.98,NE,44,0.0,0.0,95,0.00,,,0.42,Wunderground v.1.15,2013-06-19 02:12:00,
2013-06-18 22:16:00,65.5,64.0,29.98,NE,44,0.0,0.0,95,0.00,,,0.42,Wunderground v.1.15,2013-06-19 02:16:00,
2013-06-18 22:18:00,65.5,64.0,29.98,NE,44,0.0,0.0,95,0.00,,,0.42,Wunderground v.1.15,2013-06-19 02:18:00,
2013-06-18 22:20:00,65.5,64.0,29.98,NE,44,0.0,0.0,95,0.00,,,0.42,Wunderground v.1.15,2013-06-19 02:20:00,
2013-06-18 22:21:00,65.6,64.1,29.98,NE,44,0.0,0.0,95,0.00,,,0.42,Wunderground v.1.15,2013-06-19 02:21:00,
2013-06-18 22:22:00,65.6,64.1,29.98,NE,44,0.0,0.0,95,0.00,,,0.42,Wunderground v.1.15,2013-06-19 02:22:00,
2013-06-18 22:26:00,65.6,64.1,29.98,NE,44,0.0,0.0,95,0.00,,,0.42,Wunderground v.1.15,2013-06-19 02:26:00,
2013-06-18 22:28:00,65.7,64.2,29.98,NE,44,0.0,0.0,95,0.00,,,0.42,Wunderground v.1.15,2013-06-19 02:28:00,
2013-06-18 22:30:00,65.7,64.2,29.98,NE,44,0.0,0.0,95,0.00,,,0.42,Wunderground v.1.15,2013-06-19 02:30:00,
2013-06-18 22:32:00,65.6,64.1,29.98,NE,44,0.0,0.0,95,0.00,,,0.42,Wunderground v.1.15,2013-06-19 02:32:00,
2013-06-18 22:36:00,65.5,64.0,29.98,NE,44,0.0,0.0,95,0.00,,,0.42,Wunderground v.1.15,2013-06-19 02:36:00,
2013-06-18 22:38:00,65.5,64.0,29.98,NE,44,0.0,0.0,95,0.00,,,0.42,Wunderground v.1.15,2013-06-19 02:38:00,
2013-06-18 22:39:00,65.5,64.0,29.98,NE,44,0.0,0.0,95,0.00,,,0.42,Wunderground v.1.15,2013-06-19 02:39:00,
2013-06-18 22:41:00,65.4,63.9,29.98,NE,44,0.0,0.0,95,0.00,,,0.42,Wunderground v.1.15,2013-06-19 02:41:00,
2013-06-18 22:44:00,65.4,63.9,29.99,NE,44,0.0,0.0,95,0.00,,,0.42,Wunderground v.1.15,2013-06-19 02:44:00,
2013-06-18 22:47:00,65.4,63.9,29.99,NE,44,0.0,0.0,95,0.00,,,0.42,Wunderground v.1.15,2013-06-19 02:47:00,
2013-06-18 22:48:00,65.4,63.9,29.98,NE,44,0.0,0.0,95,0.00,,,0.42,Wunderground v.1.15,2013-06-19 02:48:00,
2013-06-18 22:52:00,65.4,63.9,29.99,NE,44,0.0,0.0,95,0.00,,,0.42,Wunderground v.1.15,2013-06-19 02:52:00,
2013-06-18 22:53:00,65.4,63.9,29.98,NE,44,0.0,0.0,95,0.00,,,0.42,Wunderground v.1.15,2013-06-19 02:53:00,
2013-06-18 22:55:00,65.3,63.8,29.98,NE,44,0.0,0.0,95,0.00,,,0.42,Wunderground v.1.15,2013-06-19 02:55:00,
2013-06-18 22:57:00,65.3,63.8,29.98,NE,44,0.0,0.0,95,0.00,,,0.42,Wunderground v.1.15,2013-06-19 02:57:00,
2013-06-18 23:00:00,65.3,63.8,29.98,NE,44,0.0,0.0,95,0.00,,,0.42,Wunderground v.1.15,2013-06-19 03:00:00,
2013-06-18 23:02:00,65.3,63.8,29.98,NE,44,0.0,0.0,95,0.00,,,0.42,Wunderground v.1.15,2013-06-19 03:02:00,
2013-06-18 23:04:00,65.2,63.7,29.98,NE,44,0.0,0.0,95,0.00,,,0.42,Wunderground v.1.15,2013-06-19 03:04:00,
2013-06-18 23:09:00,65.1,63.6,29.99,NE,44,0.0,0.0,95,0.00,,,0.42,Wunderground v.1.15,2013-06-19 03:09:00,
2013-06-18 23:11:00,65.0,63.5,29.99,NE,44,0.0,0.0,95,0.00,,,0.42,Wunderground v.1.15,2013-06-19 03:11:00,
2013-06-18 23:16:00,65.0,63.5,29.98,NE,44,0.0,0.0,95,0.00,,,0.42,Wunderground v.1.15,2013-06-19 03:16:00,
2013-06-18 23:19:00,65.0,63.5,29.99,NE,44,0.0,0.0,95,0.00,,,0.42,Wunderground v.1.15,2013-06-19 03:19:00,
2013-06-18 23:20:00,64.9,63.4,29.99,NE,44,0.0,0.0,95,0.00,,,0.42,Wunderground v.1.15,2013-06-19 03:20:00,
2013-06-18 23:23:00,64.9,63.4,29.99,NE,44,0.0,0.0,95,0.00,,,0.42,Wunderground v.1.15,2013-06-19 03:23:00,
2013-06-18 23:26:00,64.8,63.3,29.99,NE,44,0.0,0.0,95,0.00,,,0.42,Wunderground v.1.15,2013-06-19 03:26:00,
2013-06-18 23:27:00,64.8,63.3,29.99,NE,44,0.0,0.0,95,0.00,,,0.42,Wunderground v.1.15,2013-06-19 03:27:00,
2013-06-18 23:29:00,64.7,63.2,29.99,NE,44,0.0,0.0,95,0.00,,,0.42,Wunderground v.1.15,2013-06-19 03:29:00,
2013-06-18 23:31:00,64.7,63.2,29.99,NE,44,0.0,0.0,95,0.00,,,0.42,Wunderground v.1.15,2013-06-19 03:31:00,
2013-06-18 23:33:00,64.7,63.2,29.98,NE,44,0.0,0.0,95,0.00,,,0.42,Wunderground v.1.15,2013-06-19 03:33:00,
2013-06-18 23:36:00,64.6,63.1,29.99,NE,44,0.0,0.0,95,0.00,,,0.42,Wunderground v.1.15,2013-06-19 03:36:00,
2013-06-18 23:38:00,64.6,63.1,29.99,NE,44,0.0,0.0,95,0.00,,,0.42,Wunderground v.1.15,2013-06-19 03:38:00,
2013-06-18 23:39:00,64.6,63.1,29.99,NE,44,0.0,0.0,95,0.00,,,0.42,Wunderground v.1.15,2013-06-19 03:39:00,
2013-06-18 23:43:00,64.7,63.2,29.98,NE,44,0.0,0.0,95,0.00,,,0.42,Wunderground v.1.15,2013-06-19 03:43:00,
2013-06-18 23:45:00,64.7,63.2,29.98,NE,44,0.0,0.0,95,0.00,,,0.42,Wunderground v.1.15,2013-06-19 03:45:00,
2013-06-18 23:50:00,64.5,63.0,29.98,NE,44,0.0,0.0,95,0.00,,,0.42,Wunderground v.1.15,2013-06-19 03:50:00,
2013-06-18 23:52:00,64.5,63.0,29.98,NE,44,0.0,0.0,95,0.00,,,0.42,Wunderground v.1.15,2013-06-19 03:52:00,
2013-06-18 23:53:00,64.4,62.9,29.98,NE,44,0.0,0.0,95,0.00,,,0.42,Wunderground v.1.15,2013-06-19 03:53:00,
2013-06-18 23:55:00,64.4,62.9,29.98,NE,44,0.0,0.0,95,0.00,,,0.42,Wunderground v.1.15,2013-06-19 03:55:00,
2013-06-18 23:58:00,64.4,62.9,29.98,NE,44,0.0,0.0,95,0.00,,,0.42,Wunderground v.1.15,2013-06-19 03:58:00,